Time,TemperatureF,DewpointF,PressureIn,WindDirection,WindDirectionDegrees,WindSpeedMPH,WindSpeedGustMPH,Humidity,HourlyPrecipIn,Conditions,Clouds,dailyrainin,SoftwareType,DateUTC
2013-04-08 00:00:00,43.2,34.4,30.06,WNW,302,2.0,2.0,71,0.00,,,0.00,Wunderground v.1.15,2013-04-08 04:00:00,
2013-04-08 00:01:00,43.2,34.4,30.06,West,264,2.0,16.0,71,0.00,,,0.00,Wunderground v.1.15,2013-04-08 04:01:00,
2013-04-08 00:03:00,43.1,34.3,30.06,NNW,327,2.0,16.0,71,0.00,,,0.00,Wunderground v.1.15,2013-04-08 04:03:00,
2013-04-08 00:05:00,43.1,34.3,30.06,West,259,2.0,16.0,71,0.00,,,0.00,Wunderground v.1.15,2013-04-08 04:05:00,
2013-04-08 00:09:00,43.1,34.3,30.06,West,269,1.0,16.0,71,0.00,,,0.00,Wunderground v.1.15,2013-04-08 04:09:00,
2013-04-08 00:10:00,43.1,34.3,30.06,West,269,1.0,1.0,71,0.00,,,0.00,Wunderground v.1.15,2013-04-08 04:10:00,
2013-04-08 00:11:00,43.1,34.3,30.06,West,270,1.0,16.0,71,0.00,,,0.00,Wunderground v.1.15,2013-04-08 04:11:00,
2013-04-08 00:16:00,43.0,34.2,30.06,West,271,1.0,16.0,71,0.00,,,0.00,Wunderground v.1.15,2013-04-08 04:16:00,
2013-04-08 00:18:00,43.0,34.2,30.07,West,271,1.0,16.0,71,0.00,,,0.00,Wunderground v.1.15,2013-04-08 04:18:00,
2013-04-08 00:19:00,42.9,34.1,30.07,WSW,249,1.0,16.0,71,0.00,,,0.00,Wunderground v.1.15,2013-04-08 04:19:00,
2013-04-08 00:20:00,42.9,34.1,30.07,WSW,253,1.0,16.0,71,0.00,,,0.00,Wunderground v.1.15,2013-04-08 04:20:00,
2013-04-08 00:24:00,42.9,34.1,30.07,West,271,1.0,16.0,71,0.00,,,0.00,Wunderground v.1.15,2013-04-08 04:24:00,
2013-04-08 00:25:00,42.9,34.1,30.07,WSW,246,1.0,16.0,71,0.00,,,0.00,Wunderground v.1.15,2013-04-08 04:25:00,
2013-04-08 00:28:00,42.8,34.0,30.07,WNW,293,1.0,16.0,71,0.00,,,0.00,Wunderground v.1.15,2013-04-08 04:28:00,
2013-04-08 00:29:00,42.8,34.0,30.07,WSW,256,1.0,16.0,71,0.00,,,0.00,Wunderground v.1.15,2013-04-08 04:29:00,
2013-04-08 00:30:00,42.7,33.9,30.07,West,281,1.0,1.0,71,0.00,,,0.00,Wunderground v.1.15,2013-04-08 04:30:00,
2013-04-08 00:34:00,42.6,33.9,30.07,WNW,297,1.0,16.0,71,0.00,,,0.00,Wunderground v.1.15,2013-04-08 04:34:00,
2013-04-08 00:35:00,42.6,34.2,30.07,West,263,1.0,16.0,72,0.00,,,0.00,Wunderground v.1.15,2013-04-08 04:35:00,
2013-04-08 00:37:00,42.5,34.1,30.07,West,259,1.0,16.0,72,0.00,,,0.00,Wunderground v.1.15,2013-04-08 04:37:00,
2013-04-08 00:40:00,42.4,34.0,30.07,West,281,1.0,1.0,72,0.00,,,0.00,Wunderground v.1.15,2013-04-08 04:40:00,
2013-04-08 00:42:00,42.4,34.0,30.08,West,281,1.0,16.0,72,0.00,,,0.00,Wunderground v.1.15,2013-04-08 04:42:00,
2013-04-08 00:45:00,42.4,34.0,30.08,NNW,334,0.0,16.0,72,0.00,,,0.00,Wunderground v.1.15,2013-04-08 04:45:00,
2013-04-08 00:46:00,42.4,34.0,30.08,WNW,299,0.0,16.0,72,0.00,,,0.00,Wunderground v.1.15,2013-04-08 04:46:00,
2013-04-08 00:47:00,42.4,34.0,30.08,WNW,293,0.0,16.0,72,0.00,,,0.00,Wunderground v.1.15,2013-04-08 04:47:00,
2013-04-08 00:50:00,42.4,34.0,30.07,SW,235,0.0,16.0,72,0.00,,,0.00,Wunderground v.1.15,2013-04-08 04:50:00,
2013-04-08 00:53:00,42.3,33.9,30.08,WSW,249,0.0,16.0,72,0.00,,,0.00,Wunderground v.1.15,2013-04-08 04:53:00,
2013-04-08 00:55:00,42.3,33.9,30.08,West,266,0.0,16.0,72,0.00,,,0.00,Wunderground v.1.15,2013-04-08 04:55:00,
2013-04-08 00:57:00,42.2,33.8,30.08,West,269,1.0,16.0,72,0.00,,,0.00,Wunderground v.1.15,2013-04-08 04:57:00,
2013-04-08 00:58:00,42.2,33.8,30.08,West,271,1.0,16.0,72,0.00,,,0.00,Wunderground v.1.15,2013-04-08 04:58:00,
2013-04-08 01:03:00,42.2,34.2,30.08,West,281,1.0,16.0,73,0.00,,,0.00,Wunderground v.1.15,2013-04-08 05:03:00,
2013-04-08 01:06:00,42.1,34.1,30.08,WSW,256,0.0,16.0,73,0.00,,,0.00,Wunderground v.1.15,2013-04-08 05:06:00,
2013-04-08 01:07:00,42.1,34.1,30.08,West,266,0.0,16.0,73,0.00,,,0.00,Wunderground v.1.15,2013-04-08 05:07:00,
2013-04-08 01:08:00,42.1,34.1,30.08,West,264,0.0,16.0,73,0.00,,,0.00,Wunderground v.1.15,2013-04-08 05:08:00,
2013-04-08 01:10:00,42.1,34.1,30.08,WSW,243,1.0,16.0,73,0.00,,,0.00,Wunderground v.1.15,2013-04-08 05:10:00,
2013-04-08 01:13:00,42.0,34.0,30.08,West,274,1.0,16.0,73,0.00,,,0.00,Wunderground v.1.15,2013-04-08 05:13:00,
2013-04-08 01:14:00,42.0,34.0,30.08,West,274,1.0,16.0,73,0.00,,,0.00,Wunderground v.1.15,2013-04-08 05:14:00,
2013-04-08 01:17:00,42.0,34.0,30.08,West,263,1.0,16.0,73,0.00,,,0.00,Wunderground v.1.15,2013-04-08 05:17:00,
2013-04-08 01:18:00,42.0,34.0,30.08,West,261,1.0,16.0,73,0.00,,,0.00,Wunderground v.1.15,2013-04-08 05:18:00,
2013-04-08 01:20:00,42.0,34.0,30.08,WSW,240,0.0,16.0,73,0.00,,,0.00,Wunderground v.1.15,2013-04-08 05:20:00,
2013-04-08 01:21:00,42.0,34.0,30.08,WSW,240,0.0,16.0,73,0.00,,,0.00,Wunderground v.1.15,2013-04-08 05:21:00,
2013-04-08 01:24:00,42.0,34.0,30.08,WSW,243,0.0,16.0,73,0.00,,,0.00,Wunderground v.1.15,2013-04-08 05:24:00,
2013-04-08 01:27:00,42.0,34.0,30.08,WSW,256,1.0,16.0,73,0.00,,,0.00,Wunderground v.1.15,2013-04-08 05:27:00,
2013-04-08 01:29:00,42.0,34.0,30.08,West,260,1.0,16.0,73,0.00,,,0.00,Wunderground v.1.15,2013-04-08 05:29:00,
2013-04-08 01:32:00,42.0,34.0,30.08,WSW,238,1.0,16.0,73,0.00,,,0.00,Wunderground v.1.15,2013-04-08 05:32:00,
2013-04-08 01:34:00,41.9,33.9,30.08,WSW,256,1.0,16.0,73,0.00,,,0.00,Wunderground v.1.15,2013-04-08 05:34:00,
2013-04-08 01:35:00,41.9,33.9,30.08,West,280,1.0,16.0,73,0.00,,,0.00,Wunderground v.1.15,2013-04-08 05:35:00,
2013-04-08 01:36:00,41.9,33.9,30.08,West,279,1.0,16.0,73,0.00,,,0.00,Wunderground v.1.15,2013-04-08 05:36:00,
2013-04-08 01:38:00,42.0,34.0,30.08,West,279,1.0,16.0,73,0.00,,,0.00,Wunderground v.1.15,2013-04-08 05:38:00,
2013-04-08 01:39:00,42.0,34.0,30.08,West,281,1.0,16.0,73,0.00,,,0.00,Wunderground v.1.15,2013-04-08 05:39:00,
2013-04-08 01:41:00,42.0,34.0,30.08,West,278,1.0,16.0,73,0.00,,,0.00,Wunderground v.1.15,2013-04-08 05:41:00,
2013-04-08 01:46:00,41.9,33.9,30.08,WSW,257,0.0,16.0,73,0.00,,,0.00,Wunderground v.1.15,2013-04-08 05:46:00,
2013-04-08 01:49:00,41.9,33.9,30.08,WSW,250,0.0,16.0,73,0.00,,,0.00,Wunderground v.1.15,2013-04-08 05:49:00,
2013-04-08 01:53:00,41.9,34.2,30.08,WNW,294,1.0,16.0,74,0.00,,,0.00,Wunderground v.1.15,2013-04-08 05:53:00,
2013-04-08 01:55:00,41.9,34.2,30.08,WSW,249,0.0,16.0,74,0.00,,,0.00,Wunderground v.1.15,2013-04-08 05:55:00,
2013-04-08 01:56:00,41.9,33.9,30.08,WSW,249,0.0,16.0,73,0.00,,,0.00,Wunderground v.1.15,2013-04-08 05:56:00,
2013-04-08 01:58:00,41.8,34.1,30.08,West,259,0.0,16.0,74,0.00,,,0.00,Wunderground v.1.15,2013-04-08 05:58:00,
2013-04-08 02:01:00,41.8,34.1,30.08,West,266,0.0,16.0,74,0.00,,,0.00,Wunderground v.1.15,2013-04-08 06:01:00,
2013-04-08 02:03:00,41.8,33.8,30.08,West,270,0.0,16.0,73,0.00,,,0.00,Wunderground v.1.15,2013-04-08 06:03:00,
2013-04-08 02:05:00,41.8,34.1,30.08,WSW,255,1.0,16.0,74,0.00,,,0.00,Wunderground v.1.15,2013-04-08 06:05:00,
2013-04-08 02:06:00,41.8,34.1,30.08,SW,229,1.0,16.0,74,0.00,,,0.00,Wunderground v.1.15,2013-04-08 06:06:00,
2013-04-08 02:07:00,41.8,34.1,30.08,West,259,1.0,16.0,74,0.00,,,0.00,Wunderground v.1.15,2013-04-08 06:07:00,
2013-04-08 02:09:00,41.8,34.1,30.08,WSW,256,1.0,16.0,74,0.00,,,0.00,Wunderground v.1.15,2013-04-08 06:09:00,
2013-04-08 02:11:00,41.8,34.1,30.08,WSW,257,1.0,16.0,74,0.00,,,0.00,Wunderground v.1.15,2013-04-08 06:11:00,
2013-04-08 02:16:00,41.8,33.8,30.08,West,264,1.0,16.0,73,0.00,,,0.00,Wunderground v.1.15,2013-04-08 06:16:00,
2013-04-08 02:18:00,41.8,33.8,30.08,West,263,1.0,16.0,73,0.00,,,0.00,Wunderground v.1.15,2013-04-08 06:18:00,
2013-04-08 02:19:00,41.8,33.8,30.08,West,263,1.0,16.0,73,0.00,,,0.00,Wunderground v.1.15,2013-04-08 06:19:00,
2013-04-08 02:23:00,41.8,34.1,30.08,WSW,257,0.0,16.0,74,0.00,,,0.00,Wunderground v.1.15,2013-04-08 06:23:00,
2013-04-08 02:24:00,41.8,34.1,30.08,WSW,247,0.0,16.0,74,0.00,,,0.00,Wunderground v.1.15,2013-04-08 06:24:00,
2013-04-08 02:25:00,41.8,34.1,30.08,West,274,0.0,16.0,74,0.00,,,0.00,Wunderground v.1.15,2013-04-08 06:25:00,
2013-04-08 02:28:00,41.8,33.8,30.08,WSW,243,0.0,16.0,73,0.00,,,0.00,Wunderground v.1.15,2013-04-08 06:28:00,
2013-04-08 02:30:00,41.8,33.8,30.08,WSW,243,0.0,16.0,73,0.00,,,0.00,Wunderground v.1.15,2013-04-08 06:30:00,
2013-04-08 02:34:00,41.8,33.8,30.08,WSW,248,0.0,16.0,73,0.00,,,0.00,Wunderground v.1.15,2013-04-08 06:34:00,
2013-04-08 02:37:00,41.8,33.8,30.08,West,273,0.0,16.0,73,0.00,,,0.00,Wunderground v.1.15,2013-04-08 06:37:00,
2013-04-08 02:39:00,41.8,33.8,30.08,WNW,295,0.0,16.0,73,0.00,,,0.00,Wunderground v.1.15,2013-04-08 06:39:00,
2013-04-08 02:41:00,41.8,33.8,30.08,West,259,0.0,16.0,73,0.00,,,0.00,Wunderground v.1.15,2013-04-08 06:41:00,
2013-04-08 02:45:00,41.7,33.7,30.08,West,281,0.0,16.0,73,0.00,,,0.00,Wunderground v.1.15,2013-04-08 06:45:00,
2013-04-08 02:46:00,41.7,33.7,30.08,WSW,256,0.0,16.0,73,0.00,,,0.00,Wunderground v.1.15,2013-04-08 06:46:00,
2013-04-08 02:47:00,41.7,33.7,30.08,West,262,0.0,16.0,73,0.00,,,0.00,Wunderground v.1.15,2013-04-08 06:47:00,
2013-04-08 02:50:00,41.7,33.7,30.08,West,264,0.0,16.0,73,0.00,,,0.00,Wunderground v.1.15,2013-04-08 06:50:00,
2013-04-08 02:52:00,41.7,33.7,30.08,West,271,1.0,16.0,73,0.00,,,0.00,Wunderground v.1.15,2013-04-08 06:52:00,
2013-04-08 02:53:00,41.7,33.7,30.08,West,259,1.0,16.0,73,0.00,,,0.00,Wunderground v.1.15,2013-04-08 06:53:00,
2013-04-08 02:56:00,41.7,33.7,30.08,West,265,1.0,16.0,73,0.00,,,0.00,Wunderground v.1.15,2013-04-08 06:56:00,
2013-04-08 02:58:00,41.7,33.7,30.08,West,276,1.0,16.0,73,0.00,,,0.00,Wunderground v.1.15,2013-04-08 06:58:00,
2013-04-08 03:01:00,41.7,33.7,30.08,West,280,1.0,16.0,73,0.00,,,0.00,Wunderground v.1.15,2013-04-08 07:01:00,
2013-04-08 03:02:00,41.7,33.7,30.08,WSW,240,1.0,16.0,73,0.00,,,0.00,Wunderground v.1.15,2013-04-08 07:02:00,
2013-04-08 03:06:00,41.6,33.6,30.08,WSW,256,1.0,16.0,73,0.00,,,0.00,Wunderground v.1.15,2013-04-08 07:06:00,
2013-04-08 03:07:00,41.6,33.6,30.08,WSW,242,1.0,16.0,73,0.00,,,0.00,Wunderground v.1.15,2013-04-08 07:07:00,
2013-04-08 03:09:00,41.6,33.6,30.08,WSW,241,1.0,16.0,73,0.00,,,0.00,Wunderground v.1.15,2013-04-08 07:09:00,
2013-04-08 03:12:00,41.6,33.6,30.08,West,279,1.0,16.0,73,0.00,,,0.00,Wunderground v.1.15,2013-04-08 07:12:00,
2013-04-08 03:14:00,41.6,33.6,30.08,West,260,1.0,16.0,73,0.00,,,0.00,Wunderground v.1.15,2013-04-08 07:14:00,
2013-04-08 03:17:00,41.5,33.5,30.08,West,262,1.0,16.0,73,0.00,,,0.00,Wunderground v.1.15,2013-04-08 07:17:00,
2013-04-08 03:20:00,41.5,33.5,30.08,West,267,1.0,1.0,73,0.00,,,0.00,Wunderground v.1.15,2013-04-08 07:20:00,
2013-04-08 03:21:00,41.6,33.6,30.08,West,259,1.0,16.0,73,0.00,,,0.00,Wunderground v.1.15,2013-04-08 07:21:00,
2013-04-08 03:23:00,41.6,33.6,30.08,WNW,290,1.0,16.0,73,0.00,,,0.00,Wunderground v.1.15,2013-04-08 07:23:00,
2013-04-08 03:26:00,41.6,33.6,30.08,West,271,1.0,16.0,73,0.00,,,0.00,Wunderground v.1.15,2013-04-08 07:26:00,
2013-04-08 03:28:00,41.6,33.9,30.08,SW,233,1.0,16.0,74,0.00,,,0.00,Wunderground v.1.15,2013-04-08 07:28:00,
2013-04-08 03:30:00,41.5,33.5,30.08,WSW,257,1.0,16.0,73,0.00,,,0.00,Wunderground v.1.15,2013-04-08 07:30:00,
2013-04-08 03:32:00,41.5,33.8,30.09,West,274,1.0,16.0,74,0.00,,,0.00,Wunderground v.1.15,2013-04-08 07:32:00,
2013-04-08 03:35:00,41.5,33.8,30.09,WSW,245,1.0,16.0,74,0.00,,,0.00,Wunderground v.1.15,2013-04-08 07:35:00,
2013-04-08 03:36:00,41.5,33.8,30.09,WSW,245,1.0,16.0,74,0.00,,,0.00,Wunderground v.1.15,2013-04-08 07:36:00,
2013-04-08 03:39:00,41.5,33.5,30.08,WSW,250,1.0,16.0,73,0.00,,,0.00,Wunderground v.1.15,2013-04-08 07:39:00,
2013-04-08 03:40:00,41.5,33.8,30.08,WSW,252,1.0,1.0,74,0.00,,,0.00,Wunderground v.1.15,2013-04-08 07:40:00,
2013-04-08 03:43:00,41.5,33.8,30.08,WSW,251,1.0,16.0,74,0.00,,,0.00,Wunderground v.1.15,2013-04-08 07:43:00,
2013-04-08 03:44:00,41.5,33.8,30.08,WSW,252,1.0,16.0,74,0.00,,,0.00,Wunderground v.1.15,2013-04-08 07:44:00,
2013-04-08 03:45:00,41.5,33.8,30.08,WSW,248,1.0,16.0,74,0.00,,,0.00,Wunderground v.1.15,2013-04-08 07:45:00,
2013-04-08 03:49:00,41.5,33.8,30.08,West,263,0.0,16.0,74,0.00,,,0.00,Wunderground v.1.15,2013-04-08 07:49:00,
2013-04-08 03:52:00,41.5,33.8,30.08,WSW,249,0.0,16.0,74,0.00,,,0.00,Wunderground v.1.15,2013-04-08 07:52:00,
2013-04-08 03:53:00,41.4,33.7,30.08,WSW,249,0.0,16.0,74,0.00,,,0.00,Wunderground v.1.15,2013-04-08 07:53:00,
2013-04-08 03:54:00,41.5,33.8,30.08,WSW,249,0.0,16.0,74,0.00,,,0.00,Wunderground v.1.15,2013-04-08 07:54:00,
2013-04-08 03:55:00,41.5,33.8,30.08,WSW,249,0.0,16.0,74,0.00,,,0.00,Wunderground v.1.15,2013-04-08 07:55:00,
2013-04-08 03:59:00,41.4,33.4,30.08,West,264,0.0,16.0,73,0.00,,,0.00,Wunderground v.1.15,2013-04-08 07:59:00,
2013-04-08 04:00:00,41.5,33.5,30.09,West,263,0.0,0.0,73,0.00,,,0.00,Wunderground v.1.15,2013-04-08 08:00:00,
2013-04-08 04:01:00,41.5,33.5,30.09,West,263,0.0,0.0,73,0.00,,,0.00,Wunderground v.1.15,2013-04-08 08:01:00,
2013-04-08 04:02:00,41.5,33.5,30.08,West,263,0.0,0.0,73,0.00,,,0.00,Wunderground v.1.15,2013-04-08 08:02:00,
2013-04-08 04:06:00,41.5,33.8,30.08,West,259,0.0,1.0,74,0.00,,,0.00,Wunderground v.1.15,2013-04-08 08:06:00,
2013-04-08 04:07:00,41.5,33.8,30.08,WSW,255,0.0,1.0,74,0.00,,,0.00,Wunderground v.1.15,2013-04-08 08:07:00,
2013-04-08 04:08:00,41.5,33.8,30.08,WSW,245,0.0,1.0,74,0.00,,,0.00,Wunderground v.1.15,2013-04-08 08:08:00,
2013-04-08 04:12:00,41.5,33.8,30.09,WSW,245,0.0,0.0,74,0.00,,,0.00,Wunderground v.1.15,2013-04-08 08:12:00,
2013-04-08 04:14:00,41.5,33.5,30.09,WSW,238,0.0,0.0,73,0.00,,,0.00,Wunderground v.1.15,2013-04-08 08:14:00,
2013-04-08 04:16:00,41.5,33.8,30.09,WSW,238,0.0,0.0,74,0.00,,,0.00,Wunderground v.1.15,2013-04-08 08:16:00,
2013-04-08 04:17:00,41.5,33.5,30.09,WSW,239,0.0,0.0,73,0.00,,,0.00,Wunderground v.1.15,2013-04-08 08:17:00,
2013-04-08 04:18:00,41.5,33.8,30.09,WSW,238,0.0,1.0,74,0.00,,,0.00,Wunderground v.1.15,2013-04-08 08:18:00,
2013-04-08 04:22:00,41.5,33.5,30.09,WSW,246,0.0,0.0,73,0.00,,,0.00,Wunderground v.1.15,2013-04-08 08:22:00,
2013-04-08 04:25:00,41.5,33.5,30.09,WSW,246,0.0,0.0,73,0.00,,,0.00,Wunderground v.1.15,2013-04-08 08:25:00,
2013-04-08 04:26:00,41.5,33.5,30.09,WSW,246,0.0,0.0,73,0.00,,,0.00,Wunderground v.1.15,2013-04-08 08:26:00,
2013-04-08 04:28:00,41.5,33.5,30.09,WSW,246,0.0,0.0,73,0.00,,,0.00,Wunderground v.1.15,2013-04-08 08:28:00,
2013-04-08 04:29:00,41.5,33.5,30.09,WSW,246,0.0,0.0,73,0.00,,,0.00,Wunderground v.1.15,2013-04-08 08:29:00,
2013-04-08 04:32:00,41.5,33.5,30.09,WSW,246,0.0,0.0,73,0.00,,,0.00,Wunderground v.1.15,2013-04-08 08:32:00,
2013-04-08 04:33:00,41.5,33.5,30.09,WSW,246,0.0,0.0,73,0.00,,,0.00,Wunderground v.1.15,2013-04-08 08:33:00,
2013-04-08 04:34:00,41.5,33.5,30.09,WSW,246,0.0,0.0,73,0.00,,,0.00,Wunderground v.1.15,2013-04-08 08:34:00,
2013-04-08 04:36:00,41.5,33.5,30.09,WSW,246,0.0,0.0,73,0.00,,,0.00,Wunderground v.1.15,2013-04-08 08:36:00,
2013-04-08 04:38:00,41.5,33.5,30.09,WSW,246,0.0,0.0,73,0.00,,,0.00,Wunderground v.1.15,2013-04-08 08:38:00,
2013-04-08 04:39:00,41.5,33.5,30.09,WSW,246,0.0,0.0,73,0.00,,,0.00,Wunderground v.1.15,2013-04-08 08:39:00,
2013-04-08 04:42:00,41.5,33.8,30.09,WSW,245,0.0,0.0,74,0.00,,,0.00,Wunderground v.1.15,2013-04-08 08:42:00,
2013-04-08 04:45:00,41.4,33.7,30.09,WSW,245,0.0,0.0,74,0.00,,,0.00,Wunderground v.1.15,2013-04-08 08:45:00,
2013-04-08 04:47:00,41.4,33.7,30.09,WSW,245,0.0,0.0,74,0.00,,,0.00,Wunderground v.1.15,2013-04-08 08:47:00,
2013-04-08 04:48:00,41.4,33.7,30.09,WSW,245,0.0,0.0,74,0.00,,,0.00,Wunderground v.1.15,2013-04-08 08:48:00,
2013-04-08 04:51:00,41.3,33.6,30.09,WSW,245,0.0,0.0,74,0.00,,,0.00,Wunderground v.1.15,2013-04-08 08:51:00,
2013-04-08 04:53:00,41.3,33.3,30.09,WSW,245,0.0,0.0,73,0.00,,,0.00,Wunderground v.1.15,2013-04-08 08:53:00,
2013-04-08 04:55:00,41.3,33.6,30.09,WSW,245,0.0,0.0,74,0.00,,,0.00,Wunderground v.1.15,2013-04-08 08:55:00,
2013-04-08 04:59:00,41.3,33.3,30.10,WSW,245,0.0,0.0,73,0.00,,,0.00,Wunderground v.1.15,2013-04-08 08:59:00,
2013-04-08 05:00:00,41.3,33.3,30.10,WSW,245,0.0,0.0,73,0.00,,,0.00,Wunderground v.1.15,2013-04-08 09:00:00,
2013-04-08 05:04:00,41.4,33.4,30.10,WSW,245,0.0,3.0,73,0.00,,,0.00,Wunderground v.1.15,2013-04-08 09:04:00,
2013-04-08 05:05:00,41.4,33.7,30.10,WSW,245,0.0,3.0,74,0.00,,,0.00,Wunderground v.1.15,2013-04-08 09:05:00,
2013-04-08 05:06:00,41.4,33.7,30.10,WSW,245,0.0,3.0,74,0.00,,,0.00,Wunderground v.1.15,2013-04-08 09:06:00,
2013-04-08 05:08:00,41.4,33.4,30.10,WSW,245,0.0,3.0,73,0.00,,,0.00,Wunderground v.1.15,2013-04-08 09:08:00,
2013-04-08 05:09:00,41.4,33.4,30.10,WSW,245,0.0,3.0,73,0.00,,,0.00,Wunderground v.1.15,2013-04-08 09:09:00,
2013-04-08 05:12:00,41.4,33.4,30.10,WSW,245,0.0,3.0,73,0.00,,,0.00,Wunderground v.1.15,2013-04-08 09:12:00,
2013-04-08 05:13:00,41.4,33.7,30.10,WSW,245,0.0,3.0,74,0.00,,,0.00,Wunderground v.1.15,2013-04-08 09:13:00,
2013-04-08 05:14:00,41.3,33.6,30.10,WSW,245,0.0,3.0,74,0.00,,,0.00,Wunderground v.1.15,2013-04-08 09:14:00,
2013-04-08 05:19:00,41.4,33.7,30.10,WSW,245,0.0,3.0,74,0.00,,,0.00,Wunderground v.1.15,2013-04-08 09:19:00,
2013-04-08 05:20:00,41.4,33.7,30.10,WSW,245,0.0,3.0,74,0.00,,,0.00,Wunderground v.1.15,2013-04-08 09:20:00,
2013-04-08 05:23:00,41.3,33.6,30.10,WSW,245,0.0,3.0,74,0.00,,,0.00,Wunderground v.1.15,2013-04-08 09:23:00,
2013-04-08 05:26:00,41.4,33.7,30.10,WSW,245,0.0,3.0,74,0.00,,,0.00,Wunderground v.1.15,2013-04-08 09:26:00,
2013-04-08 05:27:00,41.4,33.7,30.10,WSW,245,0.0,3.0,74,0.00,,,0.00,Wunderground v.1.15,2013-04-08 09:27:00,
2013-04-08 05:32:00,41.4,33.7,30.11,WSW,245,0.0,3.0,74,0.00,,,0.00,Wunderground v.1.15,2013-04-08 09:32:00,
2013-04-08 05:33:00,41.4,33.7,30.11,WSW,245,0.0,3.0,74,0.00,,,0.00,Wunderground v.1.15,2013-04-08 09:33:00,
2013-04-08 05:34:00,41.4,33.7,30.11,WSW,245,0.0,3.0,74,0.00,,,0.00,Wunderground v.1.15,2013-04-08 09:34:00,
2013-04-08 05:35:00,41.4,33.7,30.11,WSW,245,0.0,3.0,74,0.00,,,0.00,Wunderground v.1.15,2013-04-08 09:35:00,
2013-04-08 05:39:00,41.4,33.7,30.11,WSW,253,0.0,3.0,74,0.00,,,0.00,Wunderground v.1.15,2013-04-08 09:39:00,
2013-04-08 05:40:00,41.4,33.7,30.11,WSW,242,0.0,3.0,74,0.00,,,0.00,Wunderground v.1.15,2013-04-08 09:40:00,
2013-04-08 05:41:00,41.4,33.7,30.10,WSW,255,0.0,3.0,74,0.00,,,0.00,Wunderground v.1.15,2013-04-08 09:41:00,
2013-04-08 05:45:00,41.4,33.7,30.10,WSW,255,0.0,3.0,74,0.00,,,0.00,Wunderground v.1.15,2013-04-08 09:45:00,
2013-04-08 05:49:00,41.4,33.7,30.10,WSW,255,0.0,3.0,74,0.00,,,0.00,Wunderground v.1.15,2013-04-08 09:49:00,
2013-04-08 05:51:00,41.4,33.7,30.10,WSW,255,0.0,3.0,74,0.00,,,0.00,Wunderground v.1.15,2013-04-08 09:51:00,
2013-04-08 05:56:00,41.3,33.6,30.10,WSW,255,0.0,3.0,74,0.00,,,0.00,Wunderground v.1.15,2013-04-08 09:56:00,
2013-04-08 05:57:00,41.3,33.6,30.10,WSW,255,0.0,3.0,74,0.00,,,0.00,Wunderground v.1.15,2013-04-08 09:57:00,
2013-04-08 05:58:00,41.3,33.6,30.10,WSW,254,0.0,3.0,74,0.00,,,0.00,Wunderground v.1.15,2013-04-08 09:58:00,
2013-04-08 06:03:00,41.2,33.5,30.10,WSW,255,0.0,3.0,74,0.00,,,0.00,Wunderground v.1.15,2013-04-08 10:03:00,
2013-04-08 06:08:00,41.1,33.4,30.10,WSW,254,0.0,3.0,74,0.00,,,0.00,Wunderground v.1.15,2013-04-08 10:08:00,
2013-04-08 06:09:00,41.1,33.4,30.10,WSW,254,0.0,3.0,74,0.00,,,0.00,Wunderground v.1.15,2013-04-08 10:09:00,
2013-04-08 06:13:00,41.0,33.3,30.10,WSW,255,0.0,3.0,74,0.00,,,0.00,Wunderground v.1.15,2013-04-08 10:13:00,
2013-04-08 06:14:00,41.1,33.8,30.10,WSW,255,0.0,3.0,75,0.00,,,0.00,Wunderground v.1.15,2013-04-08 10:14:00,
2013-04-08 06:15:00,41.0,33.3,30.10,WSW,255,0.0,3.0,74,0.00,,,0.00,Wunderground v.1.15,2013-04-08 10:15:00,
2013-04-08 06:17:00,41.1,33.8,30.10,WSW,255,0.0,3.0,75,0.00,,,0.00,Wunderground v.1.15,2013-04-08 10:17:00,
2013-04-08 06:19:00,41.0,33.7,30.10,WSW,255,0.0,3.0,75,0.00,,,0.00,Wunderground v.1.15,2013-04-08 10:19:00,
2013-04-08 06:21:00,41.0,33.7,30.10,WSW,255,0.0,3.0,75,0.00,,,0.00,Wunderground v.1.15,2013-04-08 10:21:00,
2013-04-08 06:26:00,41.0,33.7,30.09,WSW,252,0.0,3.0,75,0.00,,,0.00,Wunderground v.1.15,2013-04-08 10:26:00,
2013-04-08 06:27:00,41.0,33.3,30.09,WSW,252,0.0,3.0,74,0.00,,,0.00,Wunderground v.1.15,2013-04-08 10:27:00,
2013-04-08 06:29:00,41.0,33.7,30.10,WSW,252,0.0,3.0,75,0.00,,,0.00,Wunderground v.1.15,2013-04-08 10:29:00,
2013-04-08 06:31:00,41.1,33.8,30.10,WSW,252,0.0,3.0,75,0.00,,,0.00,Wunderground v.1.15,2013-04-08 10:31:00,
2013-04-08 06:33:00,41.0,33.3,30.10,WSW,253,0.0,3.0,74,0.00,,,0.00,Wunderground v.1.15,2013-04-08 10:33:00,
2013-04-08 06:35:00,41.1,33.8,30.10,WSW,252,0.0,3.0,75,0.00,,,0.00,Wunderground v.1.15,2013-04-08 10:35:00,
2013-04-08 06:36:00,41.1,33.8,30.10,WSW,252,0.0,3.0,75,0.00,,,0.00,Wunderground v.1.15,2013-04-08 10:36:00,
2013-04-08 06:37:00,41.1,33.8,30.10,WSW,254,0.0,3.0,75,0.00,,,0.00,Wunderground v.1.15,2013-04-08 10:37:00,
2013-04-08 06:41:00,41.2,33.9,30.10,WSW,255,0.0,3.0,75,0.00,,,0.00,Wunderground v.1.15,2013-04-08 10:41:00,
2013-04-08 06:43:00,41.2,33.9,30.10,WSW,255,0.0,3.0,75,0.00,,,0.00,Wunderground v.1.15,2013-04-08 10:43:00,
2013-04-08 06:44:00,41.2,33.9,30.10,NNW,346,0.0,3.0,75,0.00,,,0.00,Wunderground v.1.15,2013-04-08 10:44:00,
2013-04-08 06:48:00,41.2,33.9,30.11,NNW,335,0.0,3.0,75,0.00,,,0.00,Wunderground v.1.15,2013-04-08 10:48:00,
2013-04-08 06:49:00,41.1,34.1,30.11,NNW,336,0.0,3.0,76,0.00,,,0.00,Wunderground v.1.15,2013-04-08 10:49:00,
2013-04-08 06:51:00,41.1,34.1,30.12,NNW,335,0.0,3.0,76,0.00,,,0.00,Wunderground v.1.15,2013-04-08 10:51:00,
2013-04-08 06:53:00,41.1,34.1,30.12,NNW,335,0.0,3.0,76,0.00,,,0.00,Wunderground v.1.15,2013-04-08 10:53:00,
2013-04-08 06:55:00,41.1,34.1,30.12,NNW,336,0.0,3.0,76,0.00,,,0.00,Wunderground v.1.15,2013-04-08 10:55:00,
2013-04-08 06:56:00,41.1,34.1,30.12,NNW,336,0.0,3.0,76,0.00,,,0.00,Wunderground v.1.15,2013-04-08 10:56:00,
2013-04-08 06:57:00,41.1,34.1,30.12,NNW,336,0.0,3.0,76,0.00,,,0.00,Wunderground v.1.15,2013-04-08 10:57:00,
2013-04-08 07:00:00,41.1,34.1,30.12,NNW,339,0.0,3.0,76,0.00,,,0.00,Wunderground v.1.15,2013-04-08 11:00:00,
2013-04-08 07:02:00,41.1,34.1,30.12,NNW,338,0.0,3.0,76,0.00,,,0.00,Wunderground v.1.15,2013-04-08 11:02:00,
2013-04-08 07:03:00,41.0,34.0,30.12,NNW,338,0.0,3.0,76,0.00,,,0.00,Wunderground v.1.15,2013-04-08 11:03:00,
2013-04-08 07:08:00,41.0,34.3,30.12,ESE,111,0.0,3.0,77,0.00,,,0.00,Wunderground v.1.15,2013-04-08 11:08:00,
2013-04-08 07:09:00,41.0,34.3,30.12,ESE,112,0.0,3.0,77,0.00,,,0.00,Wunderground v.1.15,2013-04-08 11:09:00,
2013-04-08 07:10:00,41.0,34.3,30.12,ESE,112,0.0,3.0,77,0.00,,,0.00,Wunderground v.1.15,2013-04-08 11:10:00,
2013-04-08 07:15:00,41.0,34.3,30.12,ESE,111,0.0,3.0,77,0.00,,,0.00,Wunderground v.1.15,2013-04-08 11:15:00,
2013-04-08 07:16:00,41.1,34.4,30.12,ESE,112,0.0,3.0,77,0.00,,,0.00,Wunderground v.1.15,2013-04-08 11:16:00,
2013-04-08 07:17:00,41.1,34.4,30.12,ESE,112,0.0,3.0,77,0.00,,,0.00,Wunderground v.1.15,2013-04-08 11:17:00,
2013-04-08 07:19:00,41.1,34.4,30.12,ESE,111,0.0,3.0,77,0.00,,,0.00,Wunderground v.1.15,2013-04-08 11:19:00,
2013-04-08 07:20:00,41.1,34.4,30.13,ESE,112,0.0,3.0,77,0.00,,,0.00,Wunderground v.1.15,2013-04-08 11:20:00,
2013-04-08 07:22:00,41.1,34.4,30.13,ESE,111,0.0,3.0,77,0.00,,,0.00,Wunderground v.1.15,2013-04-08 11:22:00,
2013-04-08 07:27:00,41.2,34.5,30.13,ESE,112,0.0,3.0,77,0.00,,,0.00,Wunderground v.1.15,2013-04-08 11:27:00,
2013-04-08 07:28:00,41.2,34.2,30.14,ESE,112,0.0,3.0,76,0.00,,,0.00,Wunderground v.1.15,2013-04-08 11:28:00,
2013-04-08 07:29:00,41.2,34.5,30.14,ESE,112,0.0,3.0,77,0.00,,,0.00,Wunderground v.1.15,2013-04-08 11:29:00,
2013-04-08 07:30:00,41.2,34.2,30.14,ESE,112,0.0,3.0,76,0.00,,,0.00,Wunderground v.1.15,2013-04-08 11:30:00,
2013-04-08 07:34:00,41.3,34.3,30.14,ESE,111,0.0,3.0,76,0.00,,,0.00,Wunderground v.1.15,2013-04-08 11:34:00,
2013-04-08 07:35:00,41.3,34.3,30.14,ESE,112,0.0,3.0,76,0.00,,,0.00,Wunderground v.1.15,2013-04-08 11:35:00,
2013-04-08 07:38:00,41.3,34.3,30.14,ESE,111,0.0,3.0,76,0.00,,,0.00,Wunderground v.1.15,2013-04-08 11:38:00,
2013-04-08 07:40:00,41.3,34.3,30.14,ESE,112,0.0,3.0,76,0.00,,,0.00,Wunderground v.1.15,2013-04-08 11:40:00,
2013-04-08 07:45:00,41.4,34.4,30.14,ESE,112,0.0,3.0,76,0.00,,,0.00,Wunderground v.1.15,2013-04-08 11:45:00,
2013-04-08 07:46:00,41.4,34.1,30.14,ESE,111,0.0,3.0,75,0.00,,,0.00,Wunderground v.1.15,2013-04-08 11:46:00,
2013-04-08 07:47:00,41.4,34.1,30.14,ESE,111,0.0,3.0,75,0.00,,,0.00,Wunderground v.1.15,2013-04-08 11:47:00,
2013-04-08 07:50:00,41.5,34.2,30.14,ESE,112,0.0,3.0,75,0.00,,,0.00,Wunderground v.1.15,2013-04-08 11:50:00,
2013-04-08 07:52:00,41.5,34.2,30.14,ESE,112,0.0,3.0,75,0.00,,,0.00,Wunderground v.1.15,2013-04-08 11:52:00,
2013-04-08 07:54:00,41.6,34.3,30.14,NNE,29,0.0,3.0,75,0.00,,,0.00,Wunderground v.1.15,2013-04-08 11:54:00,
2013-04-08 07:55:00,41.7,34.0,30.14,NNE,21,0.0,3.0,74,0.00,,,0.00,Wunderground v.1.15,2013-04-08 11:55:00,
2013-04-08 07:57:00,41.7,34.0,30.14,NNW,344,0.0,3.0,74,0.00,,,0.00,Wunderground v.1.15,2013-04-08 11:57:00,
2013-04-08 07:59:00,41.8,34.1,30.14,North,4,0.0,3.0,74,0.00,,,0.00,Wunderground v.1.15,2013-04-08 11:59:00,
2013-04-08 08:00:00,41.9,34.2,30.14,NW,321,0.0,3.0,74,0.00,,,0.00,Wunderground v.1.15,2013-04-08 12:00:00,
2013-04-08 08:04:00,42.0,34.3,30.14,NW,321,0.0,3.0,74,0.00,,,0.00,Wunderground v.1.15,2013-04-08 12:04:00,
2013-04-08 08:06:00,42.1,34.4,30.14,East,80,0.0,3.0,74,0.00,,,0.00,Wunderground v.1.15,2013-04-08 12:06:00,
2013-04-08 08:08:00,42.2,34.5,30.14,SE,131,0.0,3.0,74,0.00,,,0.00,Wunderground v.1.15,2013-04-08 12:08:00,
2013-04-08 08:10:00,42.3,34.6,30.14,East,82,0.0,3.0,74,0.00,,,0.00,Wunderground v.1.15,2013-04-08 12:10:00,
2013-04-08 08:11:00,42.3,34.3,30.15,East,82,0.0,3.0,73,0.00,,,0.00,Wunderground v.1.15,2013-04-08 12:11:00,
2013-04-08 08:14:00,42.4,34.4,30.15,SE,146,0.0,3.0,73,0.00,,,0.00,Wunderground v.1.15,2013-04-08 12:14:00,
2013-04-08 08:16:00,42.5,34.5,30.15,ESE,120,0.0,3.0,73,0.00,,,0.00,Wunderground v.1.15,2013-04-08 12:16:00,
2013-04-08 08:17:00,42.5,34.5,30.15,ESE,113,0.0,3.0,73,0.00,,,0.00,Wunderground v.1.15,2013-04-08 12:17:00,
2013-04-08 08:21:00,42.5,34.1,30.15,ESE,111,0.0,3.0,72,0.00,,,0.00,Wunderground v.1.15,2013-04-08 12:21:00,
2013-04-08 08:24:00,42.5,34.1,30.15,ESE,110,0.0,3.0,72,0.00,,,0.00,Wunderground v.1.15,2013-04-08 12:24:00,
2013-04-08 08:25:00,42.5,34.1,30.15,ESE,110,0.0,3.0,72,0.00,,,0.00,Wunderground v.1.15,2013-04-08 12:25:00,
2013-04-08 08:26:00,42.5,34.1,30.15,ESE,105,0.0,3.0,72,0.00,,,0.00,Wunderground v.1.15,2013-04-08 12:26:00,
2013-04-08 08:27:00,42.5,34.1,30.15,ESE,110,0.0,3.0,72,0.00,,,0.00,Wunderground v.1.15,2013-04-08 12:27:00,
2013-04-08 08:30:00,42.5,34.1,30.15,ESE,114,0.0,3.0,72,0.00,,,0.00,Wunderground v.1.15,2013-04-08 12:30:00,
2013-04-08 08:32:00,42.6,34.2,30.15,ESE,114,0.0,3.0,72,0.00,,,0.00,Wunderground v.1.15,2013-04-08 12:32:00,
2013-04-08 08:33:00,42.6,34.2,30.15,East,93,0.0,3.0,72,0.00,,,0.00,Wunderground v.1.15,2013-04-08 12:33:00,
2013-04-08 08:34:00,42.7,34.3,30.15,ESE,113,0.0,3.0,72,0.00,,,0.00,Wunderground v.1.15,2013-04-08 12:34:00,
2013-04-08 08:39:00,42.7,34.3,30.15,East,101,1.0,3.0,72,0.00,,,0.00,Wunderground v.1.15,2013-04-08 12:39:00,
2013-04-08 08:40:00,42.6,34.2,30.15,East,100,1.0,3.0,72,0.00,,,0.00,Wunderground v.1.15,2013-04-08 12:40:00,
2013-04-08 08:42:00,42.7,34.6,30.15,East,101,1.0,3.0,73,0.00,,,0.00,Wunderground v.1.15,2013-04-08 12:42:00,
2013-04-08 08:44:00,42.9,34.5,30.15,NNE,21,1.0,3.0,72,0.00,,,0.00,Wunderground v.1.15,2013-04-08 12:44:00,
2013-04-08 08:49:00,43.1,34.3,30.15,ENE,60,1.0,3.0,71,0.00,,,0.00,Wunderground v.1.15,2013-04-08 12:49:00,
2013-04-08 08:51:00,43.0,34.2,30.15,SE,141,1.0,3.0,71,0.00,,,0.00,Wunderground v.1.15,2013-04-08 12:51:00,
2013-04-08 08:52:00,43.0,34.2,30.15,SE,141,1.0,3.0,71,0.00,,,0.00,Wunderground v.1.15,2013-04-08 12:52:00,
2013-04-08 08:53:00,43.1,34.3,30.15,SE,128,1.0,3.0,71,0.00,,,0.00,Wunderground v.1.15,2013-04-08 12:53:00,
2013-04-08 08:56:00,43.1,34.0,30.14,East,87,1.0,3.0,70,0.00,,,0.00,Wunderground v.1.15,2013-04-08 12:56:00,
2013-04-08 08:58:00,43.2,34.4,30.14,ENE,75,0.0,3.0,71,0.00,,,0.00,Wunderground v.1.15,2013-04-08 12:58:00,
2013-04-08 08:59:00,43.2,34.1,30.14,ENE,70,1.0,3.0,70,0.00,,,0.00,Wunderground v.1.15,2013-04-08 12:59:00,
2013-04-08 09:01:00,43.2,34.1,30.14,ESE,104,1.0,3.0,70,0.00,,,0.00,Wunderground v.1.15,2013-04-08 13:01:00,
2013-04-08 09:04:00,43.3,34.2,30.14,East,92,1.0,3.0,70,0.00,,,0.00,Wunderground v.1.15,2013-04-08 13:04:00,
2013-04-08 09:05:00,43.3,34.2,30.14,East,86,1.0,3.0,70,0.00,,,0.00,Wunderground v.1.15,2013-04-08 13:05:00,
2013-04-08 09:06:00,43.4,34.3,30.14,East,90,1.0,3.0,70,0.00,,,0.00,Wunderground v.1.15,2013-04-08 13:06:00,
2013-04-08 09:09:00,43.5,34.4,30.14,East,87,1.0,3.0,70,0.00,,,0.00,Wunderground v.1.15,2013-04-08 13:09:00,
2013-04-08 09:11:00,43.6,34.5,30.14,East,87,1.0,3.0,70,0.00,,,0.00,Wunderground v.1.15,2013-04-08 13:11:00,
2013-04-08 09:14:00,43.8,34.6,30.14,SE,133,0.0,3.0,70,0.00,,,0.00,Wunderground v.1.15,2013-04-08 13:14:00,
2013-04-08 09:15:00,43.9,34.7,30.14,ESE,113,0.0,3.0,70,0.00,,,0.00,Wunderground v.1.15,2013-04-08 13:15:00,
2013-04-08 09:18:00,43.9,34.4,30.14,ESE,110,1.0,3.0,69,0.00,,,0.00,Wunderground v.1.15,2013-04-08 13:18:00,
2013-04-08 09:19:00,43.9,34.4,30.14,NE,53,1.0,3.0,69,0.00,,,0.00,Wunderground v.1.15,2013-04-08 13:19:00,
2013-04-08 09:20:00,43.9,34.4,30.14,ENE,68,1.0,3.0,69,0.00,,,0.00,Wunderground v.1.15,2013-04-08 13:20:00,
2013-04-08 09:26:00,43.9,34.4,30.13,ENE,59,1.0,3.0,69,0.00,,,0.00,Wunderground v.1.15,2013-04-08 13:26:00,
2013-04-08 09:28:00,43.8,33.9,30.14,ESE,114,1.0,3.0,68,0.00,,,0.00,Wunderground v.1.15,2013-04-08 13:28:00,
2013-04-08 09:29:00,43.7,33.8,30.14,East,92,1.0,3.0,68,0.00,,,0.00,Wunderground v.1.15,2013-04-08 13:29:00,
2013-04-08 09:33:00,43.7,33.8,30.13,ENE,68,1.0,3.0,68,0.00,,,0.00,Wunderground v.1.15,2013-04-08 13:33:00,
2013-04-08 09:34:00,43.7,33.8,30.13,ENE,60,1.0,3.0,68,0.00,,,0.00,Wunderground v.1.15,2013-04-08 13:34:00,
2013-04-08 09:35:00,43.7,33.8,30.13,NE,54,1.0,3.0,68,0.00,,,0.00,Wunderground v.1.15,2013-04-08 13:35:00,
2013-04-08 09:37:00,43.8,33.9,30.13,SSE,158,1.0,3.0,68,0.00,,,0.00,Wunderground v.1.15,2013-04-08 13:37:00,
2013-04-08 09:40:00,44.1,33.8,30.13,SSE,156,1.0,1.0,67,0.00,,,0.00,Wunderground v.1.15,2013-04-08 13:40:00,
2013-04-08 09:41:00,44.1,33.8,30.13,SSE,156,1.0,3.0,67,0.00,,,0.00,Wunderground v.1.15,2013-04-08 13:41:00,
2013-04-08 09:42:00,44.1,33.8,30.13,East,81,1.0,3.0,67,0.00,,,0.00,Wunderground v.1.15,2013-04-08 13:42:00,
2013-04-08 09:46:00,44.0,33.7,30.13,SSW,195,1.0,3.0,67,0.00,,,0.00,Wunderground v.1.15,2013-04-08 13:46:00,
2013-04-08 09:47:00,44.1,33.8,30.13,SSW,195,1.0,3.0,67,0.00,,,0.00,Wunderground v.1.15,2013-04-08 13:47:00,
2013-04-08 09:48:00,44.1,34.2,30.14,SSW,197,1.0,3.0,68,0.00,,,0.00,Wunderground v.1.15,2013-04-08 13:48:00,
2013-04-08 09:49:00,44.3,34.4,30.14,SSW,197,1.0,3.0,68,0.00,,,0.00,Wunderground v.1.15,2013-04-08 13:49:00,
2013-04-08 09:53:00,44.6,34.7,30.14,ESE,108,0.0,3.0,68,0.00,,,0.00,Wunderground v.1.15,2013-04-08 13:53:00,
2013-04-08 09:56:00,45.0,35.1,30.14,East,85,0.0,3.0,68,0.00,,,0.00,Wunderground v.1.15,2013-04-08 13:56:00,
2013-04-08 09:57:00,44.9,33.8,30.14,East,79,0.0,3.0,65,0.00,,,0.00,Wunderground v.1.15,2013-04-08 13:57:00,
2013-04-08 09:58:00,45.0,33.9,30.14,ENE,62,1.0,3.0,65,0.00,,,0.00,Wunderground v.1.15,2013-04-08 13:58:00,
2013-04-08 10:02:00,45.6,34.9,30.14,NW,304,1.0,3.0,66,0.00,,,0.00,Wunderground v.1.15,2013-04-08 14:02:00,
2013-04-08 10:05:00,46.2,34.7,30.14,SW,214,1.0,3.0,64,0.00,,,0.00,Wunderground v.1.15,2013-04-08 14:05:00,
2013-04-08 10:08:00,46.4,34.9,30.14,West,271,1.0,3.0,64,0.00,,,0.00,Wunderground v.1.15,2013-04-08 14:08:00,
2013-04-08 10:09:00,46.5,35.0,30.14,WSW,257,1.0,3.0,64,0.00,,,0.00,Wunderground v.1.15,2013-04-08 14:09:00,
2013-04-08 10:10:00,46.6,34.7,30.14,ESE,103,1.0,1.0,63,0.00,,,0.00,Wunderground v.1.15,2013-04-08 14:10:00,
2013-04-08 10:14:00,46.7,35.2,30.14,SE,138,1.0,3.0,64,0.00,,,0.00,Wunderground v.1.15,2013-04-08 14:14:00,
2013-04-08 10:15:00,46.8,34.9,30.14,South,177,1.0,3.0,63,0.00,,,0.00,Wunderground v.1.15,2013-04-08 14:15:00,
2013-04-08 10:17:00,46.9,35.0,30.14,SSW,194,1.0,3.0,63,0.00,,,0.00,Wunderground v.1.15,2013-04-08 14:17:00,
2013-04-08 10:20:00,47.2,35.6,30.14,SSW,194,1.0,3.0,64,0.00,,,0.00,Wunderground v.1.15,2013-04-08 14:20:00,
2013-04-08 10:21:00,47.3,35.3,30.14,South,176,1.0,3.0,63,0.00,,,0.00,Wunderground v.1.15,2013-04-08 14:21:00,
2013-04-08 10:23:00,47.3,34.9,30.14,South,186,2.0,3.0,62,0.00,,,0.00,Wunderground v.1.15,2013-04-08 14:23:00,
2013-04-08 10:24:00,47.5,35.5,30.13,SSE,162,2.0,3.0,63,0.00,,,0.00,Wunderground v.1.15,2013-04-08 14:24:00,
2013-04-08 10:27:00,47.4,35.4,30.14,SE,141,2.0,4.0,63,0.00,,,0.00,Wunderground v.1.15,2013-04-08 14:27:00,
2013-04-08 10:28:00,47.3,34.9,30.13,WNW,284,2.0,4.0,62,0.00,,,0.00,Wunderground v.1.15,2013-04-08 14:28:00,
2013-04-08 10:29:00,47.2,34.8,30.13,SW,219,2.0,4.0,62,0.00,,,0.00,Wunderground v.1.15,2013-04-08 14:29:00,
2013-04-08 10:31:00,47.2,35.2,30.13,East,82,2.0,3.0,63,0.00,,,0.00,Wunderground v.1.15,2013-04-08 14:31:00,
2013-04-08 10:32:00,47.1,35.1,30.13,NE,55,2.0,3.0,63,0.00,,,0.00,Wunderground v.1.15,2013-04-08 14:32:00,
2013-04-08 10:35:00,47.0,35.0,30.13,NE,55,2.0,3.0,63,0.00,,,0.00,Wunderground v.1.15,2013-04-08 14:35:00,
2013-04-08 10:36:00,47.1,35.1,30.13,ENE,64,2.0,3.0,63,0.00,,,0.00,Wunderground v.1.15,2013-04-08 14:36:00,
2013-04-08 10:38:00,47.2,35.2,30.13,NE,55,2.0,4.0,63,0.00,,,0.00,Wunderground v.1.15,2013-04-08 14:38:00,
2013-04-08 10:41:00,47.4,35.4,30.12,SE,136,2.0,3.0,63,0.00,,,0.00,Wunderground v.1.15,2013-04-08 14:41:00,
2013-04-08 10:42:00,47.6,35.6,30.12,SSW,210,2.0,3.0,63,0.00,,,0.00,Wunderground v.1.15,2013-04-08 14:42:00,
2013-04-08 10:45:00,47.9,35.1,30.12,SW,235,2.0,6.0,61,0.00,,,0.00,Wunderground v.1.15,2013-04-08 14:45:00,
2013-04-08 10:46:00,48.0,35.2,30.12,North,359,2.0,6.0,61,0.00,,,0.00,Wunderground v.1.15,2013-04-08 14:46:00,
2013-04-08 10:48:00,48.3,36.3,30.12,East,101,2.0,9.0,63,0.00,,,0.00,Wunderground v.1.15,2013-04-08 14:48:00,
2013-04-08 10:53:00,48.5,35.2,30.13,SE,139,2.0,3.0,60,0.00,,,0.00,Wunderground v.1.15,2013-04-08 14:53:00,
2013-04-08 10:54:00,48.5,35.2,30.13,SE,138,2.0,3.0,60,0.00,,,0.00,Wunderground v.1.15,2013-04-08 14:54:00,
2013-04-08 10:55:00,48.5,35.2,30.13,WSW,239,1.0,3.0,60,0.00,,,0.00,Wunderground v.1.15,2013-04-08 14:55:00,
2013-04-08 10:59:00,49.0,35.3,30.13,East,80,2.0,6.0,59,0.00,,,0.00,Wunderground v.1.15,2013-04-08 14:59:00,
2013-04-08 11:00:00,48.9,35.2,30.13,East,89,1.0,3.0,59,0.00,,,0.00,Wunderground v.1.15,2013-04-08 15:00:00,
2013-04-08 11:01:00,48.9,35.6,30.13,ENE,63,1.0,3.0,60,0.00,,,0.00,Wunderground v.1.15,2013-04-08 15:01:00,
2013-04-08 11:04:00,48.7,35.4,30.13,South,172,2.0,3.0,60,0.00,,,0.00,Wunderground v.1.15,2013-04-08 15:04:00,
2013-04-08 11:07:00,48.8,35.5,30.13,SW,222,3.0,5.0,60,0.00,,,0.00,Wunderground v.1.15,2013-04-08 15:07:00,
2013-04-08 11:09:00,48.7,35.0,30.13,SE,145,3.0,5.0,59,0.00,,,0.00,Wunderground v.1.15,2013-04-08 15:09:00,
2013-04-08 11:12:00,48.5,35.2,30.13,SSE,148,3.0,3.0,60,0.00,,,0.00,Wunderground v.1.15,2013-04-08 15:12:00,
2013-04-08 11:13:00,48.6,35.3,30.12,SE,143,3.0,3.0,60,0.00,,,0.00,Wunderground v.1.15,2013-04-08 15:13:00,
2013-04-08 11:14:00,48.6,34.9,30.12,SSE,156,3.0,3.0,59,0.00,,,0.00,Wunderground v.1.15,2013-04-08 15:14:00,
2013-04-08 11:18:00,48.9,35.2,30.12,South,176,3.0,3.0,59,0.00,,,0.00,Wunderground v.1.15,2013-04-08 15:18:00,
2013-04-08 11:19:00,48.9,35.2,30.12,SW,214,2.0,3.0,59,0.00,,,0.00,Wunderground v.1.15,2013-04-08 15:19:00,
2013-04-08 11:22:00,48.9,35.2,30.12,NNE,30,2.0,3.0,59,0.00,,,0.00,Wunderground v.1.15,2013-04-08 15:22:00,
2013-04-08 11:23:00,48.9,34.8,30.12,NNE,24,2.0,3.0,58,0.00,,,0.00,Wunderground v.1.15,2013-04-08 15:23:00,
2013-04-08 11:24:00,49.0,35.3,30.12,NNE,28,1.0,3.0,59,0.00,,,0.00,Wunderground v.1.15,2013-04-08 15:24:00,
2013-04-08 11:28:00,49.6,35.4,30.12,ENE,68,1.0,5.0,58,0.00,,,0.00,Wunderground v.1.15,2013-04-08 15:28:00,
2013-04-08 11:29:00,49.7,35.5,30.12,East,101,1.0,5.0,58,0.00,,,0.00,Wunderground v.1.15,2013-04-08 15:29:00,
2013-04-08 11:33:00,50.0,35.4,30.12,SE,143,2.0,7.0,57,0.00,,,0.00,Wunderground v.1.15,2013-04-08 15:33:00,
2013-04-08 11:34:00,50.1,35.9,30.12,ESE,115,2.0,7.0,58,0.00,,,0.00,Wunderground v.1.15,2013-04-08 15:34:00,
2013-04-08 11:37:00,50.2,35.5,30.12,NNE,15,3.0,7.0,57,0.00,,,0.00,Wunderground v.1.15,2013-04-08 15:37:00,
2013-04-08 11:39:00,50.2,35.1,30.12,ENE,72,3.0,8.0,56,0.00,,,0.00,Wunderground v.1.15,2013-04-08 15:39:00,
2013-04-08 11:40:00,50.1,35.4,30.12,East,89,3.0,4.0,57,0.00,,,0.00,Wunderground v.1.15,2013-04-08 15:40:00,
2013-04-08 11:41:00,50.0,34.9,30.12,East,91,3.0,4.0,56,0.00,,,0.00,Wunderground v.1.15,2013-04-08 15:41:00,
2013-04-08 11:44:00,49.7,35.1,30.11,ENE,74,3.0,5.0,57,0.00,,,0.00,Wunderground v.1.15,2013-04-08 15:44:00,
2013-04-08 11:45:00,49.7,35.1,30.11,East,85,3.0,5.0,57,0.00,,,0.00,Wunderground v.1.15,2013-04-08 15:45:00,
2013-04-08 11:46:00,49.8,35.6,30.11,SSE,156,3.0,5.0,58,0.00,,,0.00,Wunderground v.1.15,2013-04-08 15:46:00,
2013-04-08 11:48:00,50.2,36.4,30.11,NE,47,3.0,5.0,59,0.00,,,0.00,Wunderground v.1.15,2013-04-08 15:48:00,
2013-04-08 11:49:00,50.5,36.3,30.11,ENE,71,3.0,5.0,58,0.00,,,0.00,Wunderground v.1.15,2013-04-08 15:49:00,
2013-04-08 11:50:00,50.7,36.5,30.11,NE,49,3.0,3.0,58,0.00,,,0.00,Wunderground v.1.15,2013-04-08 15:50:00,
2013-04-08 11:52:00,50.6,35.5,30.11,NE,56,3.0,3.0,56,0.00,,,0.00,Wunderground v.1.15,2013-04-08 15:52:00,
2013-04-08 11:55:00,50.9,36.6,30.12,ESE,110,3.0,3.0,58,0.00,,,0.00,Wunderground v.1.15,2013-04-08 15:55:00,
2013-04-08 11:56:00,51.2,36.9,30.12,SE,128,3.0,4.0,58,0.00,,,0.00,Wunderground v.1.15,2013-04-08 15:56:00,
2013-04-08 12:00:00,51.4,35.8,30.11,NNE,12,3.0,3.0,55,0.00,,,0.00,Wunderground v.1.15,2013-04-08 16:00:00,
2013-04-08 12:02:00,51.6,36.4,30.11,North,11,2.0,3.0,56,0.00,,,0.00,Wunderground v.1.15,2013-04-08 16:02:00,
2013-04-08 12:03:00,51.7,36.9,30.11,ESE,120,2.0,3.0,57,0.00,,,0.00,Wunderground v.1.15,2013-04-08 16:03:00,
2013-04-08 12:05:00,51.6,36.4,30.11,East,79,2.0,3.0,56,0.00,,,0.00,Wunderground v.1.15,2013-04-08 16:05:00,
2013-04-08 12:06:00,51.4,36.2,30.11,North,5,2.0,3.0,56,0.00,,,0.00,Wunderground v.1.15,2013-04-08 16:06:00,
2013-04-08 12:07:00,51.4,36.7,30.11,East,83,1.0,3.0,57,0.00,,,0.00,Wunderground v.1.15,2013-04-08 16:07:00,
2013-04-08 12:11:00,50.9,36.6,30.10,NE,46,3.0,3.0,58,0.00,,,0.00,Wunderground v.1.15,2013-04-08 16:11:00,
2013-04-08 12:12:00,50.8,36.5,30.10,NW,326,3.0,4.0,58,0.00,,,0.00,Wunderground v.1.15,2013-04-08 16:12:00,
2013-04-08 12:16:00,50.3,36.9,30.10,ENE,57,4.0,7.0,60,0.00,,,0.00,Wunderground v.1.15,2013-04-08 16:16:00,
2013-04-08 12:17:00,50.3,36.5,30.10,East,82,4.0,7.0,59,0.00,,,0.00,Wunderground v.1.15,2013-04-08 16:17:00,
2013-04-08 12:18:00,50.2,36.4,30.10,NNW,329,4.0,7.0,59,0.00,,,0.00,Wunderground v.1.15,2013-04-08 16:18:00,
2013-04-08 12:19:00,50.2,36.4,30.10,NE,54,4.0,7.0,59,0.00,,,0.00,Wunderground v.1.15,2013-04-08 16:19:00,
2013-04-08 12:21:00,49.8,35.6,30.10,NE,56,4.0,5.0,58,0.00,,,0.00,Wunderground v.1.15,2013-04-08 16:21:00,
2013-04-08 12:23:00,49.3,35.6,30.10,East,82,4.0,5.0,59,0.00,,,0.00,Wunderground v.1.15,2013-04-08 16:23:00,
2013-04-08 12:24:00,49.1,35.4,30.10,ESE,109,4.0,5.0,59,0.00,,,0.00,Wunderground v.1.15,2013-04-08 16:24:00,
2013-04-08 12:27:00,48.7,35.4,30.09,ESE,105,4.0,5.0,60,0.00,,,0.00,Wunderground v.1.15,2013-04-08 16:27:00,
2013-04-08 12:28:00,48.7,35.4,30.10,ESE,103,4.0,5.0,60,0.00,,,0.00,Wunderground v.1.15,2013-04-08 16:28:00,
2013-04-08 12:29:00,48.7,35.8,30.09,East,85,4.0,6.0,61,0.00,,,0.00,Wunderground v.1.15,2013-04-08 16:29:00,
2013-04-08 12:32:00,48.2,35.0,30.09,ENE,75,4.0,9.0,60,0.00,,,0.00,Wunderground v.1.15,2013-04-08 16:32:00,
2013-04-08 12:33:00,48.1,35.3,30.09,ESE,105,4.0,9.0,61,0.00,,,0.00,Wunderground v.1.15,2013-04-08 16:33:00,
2013-04-08 12:37:00,48.0,35.6,30.09,ENE,70,4.0,9.0,62,0.00,,,0.00,Wunderground v.1.15,2013-04-08 16:37:00,
2013-04-08 12:38:00,48.1,35.7,30.09,East,92,4.0,9.0,62,0.00,,,0.00,Wunderground v.1.15,2013-04-08 16:38:00,
2013-04-08 12:40:00,48.1,34.9,30.10,NNE,31,4.0,5.0,60,0.00,,,0.00,Wunderground v.1.15,2013-04-08 16:40:00,
2013-04-08 12:44:00,48.0,35.6,30.10,East,79,4.0,6.0,62,0.00,,,0.00,Wunderground v.1.15,2013-04-08 16:44:00,
2013-04-08 12:46:00,48.0,35.6,30.09,ENE,70,4.0,6.0,62,0.00,,,0.00,Wunderground v.1.15,2013-04-08 16:46:00,
2013-04-08 12:47:00,48.1,35.7,30.09,East,79,4.0,6.0,62,0.00,,,0.00,Wunderground v.1.15,2013-04-08 16:47:00,
2013-04-08 12:50:00,48.2,35.4,30.09,East,83,4.0,4.0,61,0.00,,,0.00,Wunderground v.1.15,2013-04-08 16:50:00,
2013-04-08 12:53:00,48.1,35.3,30.09,ENE,73,4.0,8.0,61,0.00,,,0.00,Wunderground v.1.15,2013-04-08 16:53:00,
2013-04-08 12:55:00,48.0,35.2,30.09,NE,50,5.0,8.0,61,0.00,,,0.00,Wunderground v.1.15,2013-04-08 16:55:00,
2013-04-08 12:57:00,48.0,35.6,30.09,NNE,16,5.0,8.0,62,0.00,,,0.00,Wunderground v.1.15,2013-04-08 16:57:00,
2013-04-08 12:58:00,48.1,35.7,30.09,NW,314,5.0,8.0,62,0.00,,,0.00,Wunderground v.1.15,2013-04-08 16:58:00,
2013-04-08 13:04:00,48.3,35.9,30.09,West,280,5.0,5.0,62,0.00,,,0.00,Wunderground v.1.15,2013-04-08 17:04:00,
2013-04-08 13:06:00,48.3,35.0,30.09,NNE,13,5.0,8.0,60,0.00,,,0.00,Wunderground v.1.15,2013-04-08 17:06:00,
2013-04-08 13:08:00,48.2,35.0,30.09,East,86,5.0,10.0,60,0.00,,,0.00,Wunderground v.1.15,2013-04-08 17:08:00,
2013-04-08 13:09:00,48.3,35.5,30.09,NNE,32,4.0,10.0,61,0.00,,,0.00,Wunderground v.1.15,2013-04-08 17:09:00,
2013-04-08 13:10:00,48.3,35.5,30.09,NNW,336,4.0,4.0,61,0.00,,,0.00,Wunderground v.1.15,2013-04-08 17:10:00,
2013-04-08 13:12:00,48.5,35.7,30.09,NNE,22,4.0,6.0,61,0.00,,,0.00,Wunderground v.1.15,2013-04-08 17:12:00,
2013-04-08 13:14:00,48.8,35.5,30.08,ENE,57,4.0,6.0,60,0.00,,,0.00,Wunderground v.1.15,2013-04-08 17:14:00,
2013-04-08 13:16:00,48.6,34.9,30.08,NE,47,4.0,6.0,59,0.00,,,0.00,Wunderground v.1.15,2013-04-08 17:16:00,
2013-04-08 13:18:00,48.7,35.4,30.08,NW,311,4.0,6.0,60,0.00,,,0.00,Wunderground v.1.15,2013-04-08 17:18:00,
2013-04-08 13:21:00,49.0,35.3,30.09,ENE,63,4.0,6.0,59,0.00,,,0.00,Wunderground v.1.15,2013-04-08 17:21:00,
2013-04-08 13:24:00,48.8,35.1,30.08,North,349,4.0,6.0,59,0.00,,,0.00,Wunderground v.1.15,2013-04-08 17:24:00,
2013-04-08 13:25:00,48.8,35.1,30.08,ENE,77,4.0,8.0,59,0.00,,,0.00,Wunderground v.1.15,2013-04-08 17:25:00,
2013-04-08 13:27:00,48.9,35.6,30.08,ENE,75,4.0,9.0,60,0.00,,,0.00,Wunderground v.1.15,2013-04-08 17:27:00,
2013-04-08 13:31:00,48.6,35.3,30.08,NNE,25,5.0,5.0,60,0.00,,,0.00,Wunderground v.1.15,2013-04-08 17:31:00,
2013-04-08 13:32:00,48.6,35.7,30.08,ENE,69,4.0,6.0,61,0.00,,,0.00,Wunderground v.1.15,2013-04-08 17:32:00,
2013-04-08 13:33:00,48.6,35.7,30.08,East,79,4.0,6.0,61,0.00,,,0.00,Wunderground v.1.15,2013-04-08 17:33:00,
2013-04-08 13:34:00,48.7,35.8,30.08,East,86,5.0,7.0,61,0.00,,,0.00,Wunderground v.1.15,2013-04-08 17:34:00,
2013-04-08 13:38:00,48.8,35.5,30.08,ENE,75,5.0,8.0,60,0.00,,,0.00,Wunderground v.1.15,2013-04-08 17:38:00,
2013-04-08 13:39:00,48.9,36.0,30.08,NE,56,5.0,11.0,61,0.00,,,0.00,Wunderground v.1.15,2013-04-08 17:39:00,
2013-04-08 13:40:00,48.9,36.0,30.08,East,84,5.0,5.0,61,0.00,,,0.00,Wunderground v.1.15,2013-04-08 17:40:00,
2013-04-08 13:41:00,48.7,35.4,30.07,East,85,5.0,5.0,60,0.00,,,0.00,Wunderground v.1.15,2013-04-08 17:41:00,
2013-04-08 13:46:00,48.4,35.6,30.07,NNE,15,5.0,6.0,61,0.00,,,0.00,Wunderground v.1.15,2013-04-08 17:46:00,
2013-04-08 13:48:00,48.4,35.6,30.07,NE,51,5.0,10.0,61,0.00,,,0.00,Wunderground v.1.15,2013-04-08 17:48:00,
2013-04-08 13:49:00,48.3,35.5,30.07,East,98,5.0,10.0,61,0.00,,,0.00,Wunderground v.1.15,2013-04-08 17:49:00,
2013-04-08 13:52:00,48.4,35.6,30.06,NNE,26,5.0,6.0,61,0.00,,,0.00,Wunderground v.1.15,2013-04-08 17:52:00,
2013-04-08 13:53:00,48.5,36.1,30.06,SE,124,6.0,6.0,62,0.00,,,0.00,Wunderground v.1.15,2013-04-08 17:53:00,
2013-04-08 13:54:00,48.5,36.1,30.06,East,79,5.0,6.0,62,0.00,,,0.00,Wunderground v.1.15,2013-04-08 17:54:00,
2013-04-08 13:56:00,48.5,35.7,30.06,East,94,5.0,6.0,61,0.00,,,0.00,Wunderground v.1.15,2013-04-08 17:56:00,
2013-04-08 13:58:00,48.5,35.2,30.06,SE,133,5.0,6.0,60,0.00,,,0.00,Wunderground v.1.15,2013-04-08 17:58:00,
2013-04-08 14:00:00,48.7,35.8,30.05,NNW,342,4.0,4.0,61,0.00,,,0.00,Wunderground v.1.15,2013-04-08 18:00:00,
2013-04-08 14:03:00,49.2,35.9,30.05,NNW,338,4.0,8.0,60,0.00,,,0.00,Wunderground v.1.15,2013-04-08 18:03:00,
2013-04-08 14:04:00,49.2,35.9,30.05,ENE,71,4.0,8.0,60,0.00,,,0.00,Wunderground v.1.15,2013-04-08 18:04:00,
2013-04-08 14:08:00,49.3,35.6,30.05,SSW,212,3.0,8.0,59,0.00,,,0.00,Wunderground v.1.15,2013-04-08 18:08:00,
2013-04-08 14:11:00,49.1,35.8,30.05,NNW,346,4.0,5.0,60,0.00,,,0.00,Wunderground v.1.15,2013-04-08 18:11:00,
2013-04-08 14:12:00,48.9,35.6,30.05,North,352,4.0,5.0,60,0.00,,,0.00,Wunderground v.1.15,2013-04-08 18:12:00,
2013-04-08 14:14:00,48.8,36.4,30.06,NE,37,5.0,5.0,62,0.00,,,0.00,Wunderground v.1.15,2013-04-08 18:14:00,
2013-04-08 14:16:00,48.6,36.2,30.05,East,95,5.0,5.0,62,0.00,,,0.00,Wunderground v.1.15,2013-04-08 18:16:00,
2013-04-08 14:18:00,48.7,35.8,30.05,ENE,66,5.0,5.0,61,0.00,,,0.00,Wunderground v.1.15,2013-04-08 18:18:00,
2013-04-08 14:19:00,48.8,36.4,30.05,NW,326,5.0,5.0,62,0.00,,,0.00,Wunderground v.1.15,2013-04-08 18:19:00,
2013-04-08 14:20:00,48.9,36.0,30.05,ENE,62,5.0,5.0,61,0.00,,,0.00,Wunderground v.1.15,2013-04-08 18:20:00,
2013-04-08 14:22:00,49.1,35.8,30.05,NNE,20,5.0,5.0,60,0.00,,,0.00,Wunderground v.1.15,2013-04-08 18:22:00,
2013-04-08 14:24:00,49.0,35.7,30.05,East,81,4.0,5.0,60,0.00,,,0.00,Wunderground v.1.15,2013-04-08 18:24:00,
2013-04-08 14:27:00,48.8,35.9,30.05,NNW,342,4.0,6.0,61,0.00,,,0.00,Wunderground v.1.15,2013-04-08 18:27:00,
2013-04-08 14:28:00,48.8,35.9,30.05,NE,49,4.0,6.0,61,0.00,,,0.00,Wunderground v.1.15,2013-04-08 18:28:00,
2013-04-08 14:32:00,48.7,35.8,30.04,East,89,4.0,8.0,61,0.00,,,0.00,Wunderground v.1.15,2013-04-08 18:32:00,
2013-04-08 14:33:00,48.7,36.3,30.04,NE,51,4.0,8.0,62,0.00,,,0.00,Wunderground v.1.15,2013-04-08 18:33:00,
2013-04-08 14:34:00,48.7,35.8,30.04,ESE,110,4.0,8.0,61,0.00,,,0.00,Wunderground v.1.15,2013-04-08 18:34:00,
2013-04-08 14:39:00,49.0,36.1,30.04,East,85,3.0,10.0,61,0.00,,,0.00,Wunderground v.1.15,2013-04-08 18:39:00,
2013-04-08 14:40:00,49.0,36.5,30.04,West,278,4.0,4.0,62,0.00,,,0.00,Wunderground v.1.15,2013-04-08 18:40:00,
2013-04-08 14:41:00,49.1,36.2,30.03,North,358,4.0,4.0,61,0.00,,,0.00,Wunderground v.1.15,2013-04-08 18:41:00,
2013-04-08 14:46:00,48.7,35.8,30.03,East,85,4.0,8.0,61,0.00,,,0.00,Wunderground v.1.15,2013-04-08 18:46:00,
2013-04-08 14:48:00,48.6,36.2,30.03,East,90,4.0,8.0,62,0.00,,,0.00,Wunderground v.1.15,2013-04-08 18:48:00,
2013-04-08 14:50:00,48.5,35.7,30.03,East,82,4.0,9.0,61,0.00,,,0.00,Wunderground v.1.15,2013-04-08 18:50:00,
2013-04-08 14:51:00,48.2,35.8,30.03,ENE,63,5.0,9.0,62,0.00,,,0.00,Wunderground v.1.15,2013-04-08 18:51:00,
2013-04-08 14:53:00,48.1,36.1,30.03,NNW,328,5.0,9.0,63,0.00,,,0.00,Wunderground v.1.15,2013-04-08 18:53:00,
2013-04-08 14:54:00,48.2,36.2,30.03,West,281,4.0,9.0,63,0.00,,,0.00,Wunderground v.1.15,2013-04-08 18:54:00,
2013-04-08 14:55:00,48.2,35.8,30.03,North,11,4.0,9.0,62,0.00,,,0.00,Wunderground v.1.15,2013-04-08 18:55:00,
2013-04-08 14:56:00,48.1,35.7,30.03,ENE,65,4.0,9.0,62,0.00,,,0.00,Wunderground v.1.15,2013-04-08 18:56:00,
2013-04-08 15:00:00,47.7,35.3,30.03,ENE,65,4.0,5.0,62,0.00,,,0.00,Wunderground v.1.15,2013-04-08 19:00:00,
2013-04-08 15:03:00,47.3,35.7,30.02,East,84,4.0,10.0,64,0.00,,,0.00,Wunderground v.1.15,2013-04-08 19:03:00,
2013-04-08 15:06:00,47.2,35.6,30.02,NE,34,4.0,10.0,64,0.00,,,0.00,Wunderground v.1.15,2013-04-08 19:06:00,
2013-04-08 15:07:00,47.1,35.5,30.02,NNE,28,4.0,10.0,64,0.00,,,0.00,Wunderground v.1.15,2013-04-08 19:07:00,
2013-04-08 15:08:00,46.9,35.4,30.02,NE,44,5.0,10.0,64,0.00,,,0.00,Wunderground v.1.15,2013-04-08 19:08:00,
2013-04-08 15:09:00,46.6,35.1,30.02,ENE,68,5.0,10.0,64,0.00,,,0.00,Wunderground v.1.15,2013-04-08 19:09:00,
2013-04-08 15:14:00,45.9,35.6,30.02,NW,318,5.0,5.0,67,0.00,,,0.00,Wunderground v.1.15,2013-04-08 19:14:00,
2013-04-08 15:15:00,46.0,35.7,30.02,North,6,5.0,5.0,67,0.00,,,0.00,Wunderground v.1.15,2013-04-08 19:15:00,
2013-04-08 15:16:00,46.1,35.7,30.02,NE,55,5.0,5.0,67,0.00,,,0.00,Wunderground v.1.15,2013-04-08 19:16:00,
2013-04-08 15:19:00,45.8,35.5,30.02,NW,314,5.0,8.0,67,0.00,,,0.00,Wunderground v.1.15,2013-04-08 19:19:00,
2013-04-08 15:20:00,45.7,35.7,30.02,East,85,5.0,5.0,68,0.00,,,0.00,Wunderground v.1.15,2013-04-08 19:20:00,
2013-04-08 15:24:00,45.4,35.8,30.02,ENE,76,5.0,8.0,69,0.00,,,0.00,Wunderground v.1.15,2013-04-08 19:24:00,
2013-04-08 15:25:00,45.3,35.7,30.02,East,84,5.0,8.0,69,0.00,,,0.00,Wunderground v.1.15,2013-04-08 19:25:00,
2013-04-08 15:26:00,45.3,36.1,30.02,ENE,76,5.0,8.0,70,0.00,,,0.00,Wunderground v.1.15,2013-04-08 19:26:00,
2013-04-08 15:30:00,45.2,35.6,30.01,ENE,77,6.0,6.0,69,0.00,,,0.00,Wunderground v.1.15,2013-04-08 19:30:00,
2013-04-08 15:31:00,45.1,35.5,30.01,NE,45,6.0,7.0,69,0.00,,,0.00,Wunderground v.1.15,2013-04-08 19:31:00,
2013-04-08 15:32:00,45.0,35.4,30.01,East,82,6.0,7.0,69,0.00,,,0.00,Wunderground v.1.15,2013-04-08 19:32:00,
2013-04-08 15:33:00,45.0,35.8,30.01,NNE,12,6.0,9.0,70,0.00,,,0.00,Wunderground v.1.15,2013-04-08 19:33:00,
2013-04-08 15:35:00,45.2,36.4,30.00,NE,39,5.0,13.0,71,0.00,,,0.00,Wunderground v.1.15,2013-04-08 19:35:00,
2013-04-08 15:37:00,45.3,36.1,30.00,NE,39,6.0,13.0,70,0.00,,,0.00,Wunderground v.1.15,2013-04-08 19:37:00,
2013-04-08 15:38:00,45.3,36.1,30.00,ENE,64,6.0,13.0,70,0.00,,,0.00,Wunderground v.1.15,2013-04-08 19:38:00,
2013-04-08 15:41:00,45.3,35.7,30.00,East,79,6.0,6.0,69,0.00,,,0.00,Wunderground v.1.15,2013-04-08 19:41:00,
2013-04-08 15:43:00,45.4,36.5,30.00,NE,53,5.0,6.0,71,0.00,,,0.00,Wunderground v.1.15,2013-04-08 19:43:00,
2013-04-08 15:44:00,45.6,36.7,30.00,ENE,72,5.0,7.0,71,0.00,,,0.00,Wunderground v.1.15,2013-04-08 19:44:00,
2013-04-08 15:45:00,45.6,36.4,30.00,ENE,68,5.0,7.0,70,0.00,,,0.00,Wunderground v.1.15,2013-04-08 19:45:00,
2013-04-08 15:48:00,45.8,36.2,29.99,NE,54,4.0,7.0,69,0.00,,,0.00,Wunderground v.1.15,2013-04-08 19:48:00,
2013-04-08 15:50:00,45.8,36.2,29.99,ESE,117,4.0,8.0,69,0.00,,,0.00,Wunderground v.1.15,2013-04-08 19:50:00,
2013-04-08 15:52:00,45.6,36.0,29.99,North,8,4.0,8.0,69,0.00,,,0.00,Wunderground v.1.15,2013-04-08 19:52:00,
2013-04-08 15:55:00,45.3,35.7,29.98,NNE,33,5.0,8.0,69,0.00,,,0.00,Wunderground v.1.15,2013-04-08 19:55:00,
2013-04-08 15:57:00,45.1,35.5,29.98,East,96,5.0,9.0,69,0.00,,,0.00,Wunderground v.1.15,2013-04-08 19:57:00,
2013-04-08 16:00:00,45.0,35.4,29.98,East,84,6.0,6.0,69,0.00,,,0.00,Wunderground v.1.15,2013-04-08 20:00:00,
2013-04-08 16:04:00,44.8,35.6,29.98,NE,46,6.0,8.0,70,0.00,,,0.00,Wunderground v.1.15,2013-04-08 20:04:00,
2013-04-08 16:05:00,44.8,35.6,29.99,East,96,5.0,8.0,70,0.00,,,0.00,Wunderground v.1.15,2013-04-08 20:05:00,
2013-04-08 16:06:00,44.8,35.6,29.98,NE,56,5.0,9.0,70,0.00,,,0.00,Wunderground v.1.15,2013-04-08 20:06:00,
2013-04-08 16:10:00,44.6,35.8,29.98,ENE,68,4.0,7.0,71,0.00,,,0.00,Wunderground v.1.15,2013-04-08 20:10:00,
2013-04-08 16:12:00,44.6,35.4,29.98,East,101,4.0,7.0,70,0.00,,,0.00,Wunderground v.1.15,2013-04-08 20:12:00,
2013-04-08 16:15:00,44.7,35.9,29.98,ENE,64,4.0,7.0,71,0.00,,,0.00,Wunderground v.1.15,2013-04-08 20:15:00,
2013-04-08 16:17:00,44.8,35.6,29.98,ENE,65,3.0,7.0,70,0.00,,,0.00,Wunderground v.1.15,2013-04-08 20:17:00,
2013-04-08 16:18:00,44.8,35.6,29.98,East,84,3.0,8.0,70,0.00,,,0.00,Wunderground v.1.15,2013-04-08 20:18:00,
2013-04-08 16:21:00,44.8,35.6,29.98,ENE,75,3.0,5.0,70,0.00,,,0.00,Wunderground v.1.15,2013-04-08 20:21:00,
2013-04-08 16:23:00,44.6,35.4,29.97,East,86,4.0,6.0,70,0.00,,,0.00,Wunderground v.1.15,2013-04-08 20:23:00,
2013-04-08 16:25:00,44.6,35.4,29.97,NE,35,4.0,6.0,70,0.00,,,0.00,Wunderground v.1.15,2013-04-08 20:25:00,
2013-04-08 16:28:00,44.4,35.6,29.97,East,98,5.0,7.0,71,0.00,,,0.00,Wunderground v.1.15,2013-04-08 20:28:00,
2013-04-08 16:29:00,44.4,35.6,29.97,NNE,18,5.0,7.0,71,0.00,,,0.00,Wunderground v.1.15,2013-04-08 20:29:00,
2013-04-08 16:31:00,44.4,35.6,29.97,ENE,76,5.0,5.0,71,0.00,,,0.00,Wunderground v.1.15,2013-04-08 20:31:00,
2013-04-08 16:33:00,44.4,35.6,29.97,NW,321,5.0,5.0,71,0.00,,,0.00,Wunderground v.1.15,2013-04-08 20:33:00,
2013-04-08 16:34:00,44.4,35.9,29.97,NNE,26,5.0,5.0,72,0.00,,,0.00,Wunderground v.1.15,2013-04-08 20:34:00,
2013-04-08 16:35:00,44.5,36.0,29.97,NE,55,5.0,9.0,72,0.00,,,0.00,Wunderground v.1.15,2013-04-08 20:35:00,
2013-04-08 16:36:00,44.5,35.7,29.96,ENE,75,5.0,9.0,71,0.00,,,0.00,Wunderground v.1.15,2013-04-08 20:36:00,
2013-04-08 16:40:00,44.5,35.7,29.96,ENE,73,4.0,4.0,71,0.00,,,0.00,Wunderground v.1.15,2013-04-08 20:40:00,
2013-04-08 16:42:00,44.5,35.7,29.96,NE,54,4.0,5.0,71,0.00,,,0.00,Wunderground v.1.15,2013-04-08 20:42:00,
2013-04-08 16:46:00,44.7,35.9,29.96,East,84,4.0,9.0,71,0.00,,,0.00,Wunderground v.1.15,2013-04-08 20:46:00,
2013-04-08 16:47:00,44.7,35.9,29.96,East,87,4.0,9.0,71,0.00,,,0.00,Wunderground v.1.15,2013-04-08 20:47:00,
2013-04-08 16:51:00,44.9,36.1,29.96,ENE,69,4.0,8.0,71,0.00,,,0.00,Wunderground v.1.15,2013-04-08 20:51:00,
2013-04-08 16:52:00,44.9,35.7,29.96,WSW,253,4.0,8.0,70,0.00,,,0.00,Wunderground v.1.15,2013-04-08 20:52:00,
2013-04-08 16:56:00,45.0,35.8,29.96,ENE,60,3.0,8.0,70,0.00,,,0.00,Wunderground v.1.15,2013-04-08 20:56:00,
2013-04-08 16:58:00,45.0,35.8,29.95,NNE,28,4.0,8.0,70,0.00,,,0.00,Wunderground v.1.15,2013-04-08 20:58:00,
2013-04-08 16:59:00,45.0,35.8,29.95,NNE,28,4.0,8.0,70,0.00,,,0.00,Wunderground v.1.15,2013-04-08 20:59:00,
2013-04-08 17:01:00,45.0,35.8,29.96,ENE,72,3.0,4.0,70,0.00,,,0.00,Wunderground v.1.15,2013-04-08 21:01:00,
2013-04-08 17:02:00,45.0,35.8,29.96,ENE,68,3.0,7.0,70,0.00,,,0.00,Wunderground v.1.15,2013-04-08 21:02:00,
2013-04-08 17:04:00,44.8,35.6,29.96,NE,44,4.0,7.0,70,0.00,,,0.00,Wunderground v.1.15,2013-04-08 21:04:00,
2013-04-08 17:08:00,44.9,36.1,29.96,NW,309,3.0,7.0,71,0.00,,,0.00,Wunderground v.1.15,2013-04-08 21:08:00,
2013-04-08 17:10:00,45.0,35.8,29.96,WNW,295,2.0,2.0,70,0.00,,,0.00,Wunderground v.1.15,2013-04-08 21:10:00,
2013-04-08 17:11:00,45.1,35.9,29.95,ENE,78,2.0,5.0,70,0.00,,,0.00,Wunderground v.1.15,2013-04-08 21:11:00,
2013-04-08 17:14:00,44.9,35.7,29.95,East,93,2.0,6.0,70,0.00,,,0.00,Wunderground v.1.15,2013-04-08 21:14:00,
2013-04-08 17:15:00,44.9,35.7,29.95,ENE,68,2.0,6.0,70,0.00,,,0.00,Wunderground v.1.15,2013-04-08 21:15:00,
2013-04-08 17:16:00,44.8,36.0,29.95,East,101,2.0,6.0,71,0.00,,,0.00,Wunderground v.1.15,2013-04-08 21:16:00,
2013-04-08 17:19:00,44.8,36.0,29.95,ENE,66,2.0,6.0,71,0.00,,,0.00,Wunderground v.1.15,2013-04-08 21:19:00,
2013-04-08 17:21:00,44.8,36.0,29.96,ENE,73,2.0,4.0,71,0.00,,,0.00,Wunderground v.1.15,2013-04-08 21:21:00,
2013-04-08 17:22:00,44.8,36.0,29.96,NE,56,2.0,4.0,71,0.00,,,0.00,Wunderground v.1.15,2013-04-08 21:22:00,
2013-04-08 17:26:00,44.7,35.9,29.96,East,80,2.0,4.0,71,0.00,,,0.00,Wunderground v.1.15,2013-04-08 21:26:00,
2013-04-08 17:28:00,44.7,35.9,29.96,SE,127,2.0,4.0,71,0.00,,,0.00,Wunderground v.1.15,2013-04-08 21:28:00,
2013-04-08 17:33:00,44.9,36.4,29.96,East,79,1.0,3.0,72,0.00,,,0.00,Wunderground v.1.15,2013-04-08 21:33:00,
2013-04-08 17:34:00,44.9,36.8,29.96,NW,325,1.0,3.0,73,0.00,,,0.00,Wunderground v.1.15,2013-04-08 21:34:00,
2013-04-08 17:35:00,45.0,36.9,29.96,NNW,338,1.0,3.0,73,0.00,,,0.00,Wunderground v.1.15,2013-04-08 21:35:00,
2013-04-08 17:37:00,44.9,36.8,29.96,NNE,22,1.0,5.0,73,0.00,,,0.00,Wunderground v.1.15,2013-04-08 21:37:00,
2013-04-08 17:40:00,44.7,36.9,29.96,East,100,1.0,1.0,74,0.00,,,0.00,Wunderground v.1.15,2013-04-08 21:40:00,
2013-04-08 17:45:00,44.4,37.0,29.95,ENE,73,2.0,3.0,75,0.00,,,0.00,Wunderground v.1.15,2013-04-08 21:45:00,
2013-04-08 17:47:00,44.4,37.3,29.95,East,90,2.0,4.0,76,0.00,,,0.00,Wunderground v.1.15,2013-04-08 21:47:00,
2013-04-08 17:51:00,44.3,37.5,29.95,NE,52,2.0,3.0,77,0.00,,,0.00,Wunderground v.1.15,2013-04-08 21:51:00,
2013-04-08 17:54:00,44.3,37.5,29.94,ENE,77,1.0,3.0,77,0.00,,,0.00,Wunderground v.1.15,2013-04-08 21:54:00,
2013-04-08 17:59:00,44.2,37.4,29.93,East,84,2.0,4.0,77,0.00,,,0.00,Wunderground v.1.15,2013-04-08 21:59:00,
2013-04-08 18:00:00,44.2,37.4,29.93,ENE,63,2.0,3.0,77,0.00,,,0.00,Wunderground v.1.15,2013-04-08 22:00:00,
2013-04-08 18:01:00,44.2,37.4,29.93,NE,39,2.0,4.0,77,0.00,,,0.00,Wunderground v.1.15,2013-04-08 22:01:00,
2013-04-08 18:05:00,44.2,37.8,29.93,ENE,62,2.0,8.0,78,0.00,,,0.00,Wunderground v.1.15,2013-04-08 22:05:00,
2013-04-08 18:06:00,44.2,37.4,29.92,East,94,3.0,8.0,77,0.00,,,0.00,Wunderground v.1.15,2013-04-08 22:06:00,
2013-04-08 18:09:00,44.2,37.4,29.92,WNW,291,3.0,8.0,77,0.00,,,0.00,Wunderground v.1.15,2013-04-08 22:09:00,
2013-04-08 18:11:00,44.2,37.4,29.92,NE,53,3.0,4.0,77,0.00,,,0.00,Wunderground v.1.15,2013-04-08 22:11:00,
2013-04-08 18:12:00,44.1,37.3,29.92,North,351,2.0,4.0,77,0.00,,,0.00,Wunderground v.1.15,2013-04-08 22:12:00,
2013-04-08 18:13:00,44.1,37.3,29.92,East,92,2.0,4.0,77,0.00,,,0.00,Wunderground v.1.15,2013-04-08 22:13:00,
2013-04-08 18:15:00,44.1,37.3,29.92,East,79,2.0,4.0,77,0.00,,,0.00,Wunderground v.1.15,2013-04-08 22:15:00,
2013-04-08 18:16:00,44.1,37.3,29.92,ENE,74,2.0,5.0,77,0.00,,,0.00,Wunderground v.1.15,2013-04-08 22:16:00,
2013-04-08 18:19:00,44.0,37.3,29.92,East,94,3.0,5.0,77,0.00,,,0.00,Wunderground v.1.15,2013-04-08 22:19:00,
2013-04-08 18:20:00,44.0,37.3,29.92,ESE,117,3.0,6.0,77,0.00,,,0.00,Wunderground v.1.15,2013-04-08 22:20:00,
2013-04-08 18:23:00,43.9,36.8,29.92,ESE,117,3.0,6.0,76,0.00,,,0.00,Wunderground v.1.15,2013-04-08 22:23:00,
2013-04-08 18:25:00,43.9,36.8,29.92,East,82,3.0,6.0,76,0.00,,,0.00,Wunderground v.1.15,2013-04-08 22:25:00,
2013-04-08 18:26:00,43.9,36.8,29.92,ENE,68,3.0,6.0,76,0.00,,,0.00,Wunderground v.1.15,2013-04-08 22:26:00,
2013-04-08 18:29:00,43.8,36.7,29.91,ENE,76,3.0,6.0,76,0.00,,,0.00,Wunderground v.1.15,2013-04-08 22:29:00,
2013-04-08 18:30:00,43.7,36.6,29.91,East,93,3.0,3.0,76,0.00,,,0.00,Wunderground v.1.15,2013-04-08 22:30:00,
2013-04-08 18:32:00,43.7,36.6,29.91,ENE,62,3.0,5.0,76,0.00,,,0.00,Wunderground v.1.15,2013-04-08 22:32:00,
2013-04-08 18:34:00,43.6,36.9,29.91,NE,52,3.0,5.0,77,0.00,,,0.00,Wunderground v.1.15,2013-04-08 22:34:00,
2013-04-08 18:35:00,43.6,36.5,29.91,ENE,63,3.0,5.0,76,0.00,,,0.00,Wunderground v.1.15,2013-04-08 22:35:00,
2013-04-08 18:36:00,43.6,36.9,29.91,East,87,3.0,5.0,77,0.00,,,0.00,Wunderground v.1.15,2013-04-08 22:36:00,
2013-04-08 18:41:00,43.4,36.7,29.91,West,274,3.0,5.0,77,0.00,,,0.00,Wunderground v.1.15,2013-04-08 22:41:00,
2013-04-08 18:42:00,43.3,36.6,29.91,NE,53,3.0,5.0,77,0.00,,,0.00,Wunderground v.1.15,2013-04-08 22:42:00,
2013-04-08 18:43:00,43.3,36.6,29.91,ENE,70,3.0,5.0,77,0.00,,,0.00,Wunderground v.1.15,2013-04-08 22:43:00,
2013-04-08 18:44:00,43.3,36.6,29.91,ENE,60,3.0,5.0,77,0.00,,,0.00,Wunderground v.1.15,2013-04-08 22:44:00,
2013-04-08 18:47:00,43.3,36.6,29.91,ENE,63,3.0,5.0,77,0.00,,,0.00,Wunderground v.1.15,2013-04-08 22:47:00,
2013-04-08 18:48:00,43.3,36.9,29.91,NE,43,3.0,5.0,78,0.00,,,0.00,Wunderground v.1.15,2013-04-08 22:48:00,
2013-04-08 18:50:00,43.2,36.8,29.92,NNW,348,2.0,4.0,78,0.00,,,0.00,Wunderground v.1.15,2013-04-08 22:50:00,
2013-04-08 18:53:00,43.2,36.8,29.92,NW,319,2.0,4.0,78,0.00,,,0.00,Wunderground v.1.15,2013-04-08 22:53:00,
2013-04-08 18:54:00,43.2,36.8,29.92,NW,318,2.0,4.0,78,0.00,,,0.00,Wunderground v.1.15,2013-04-08 22:54:00,
2013-04-08 18:58:00,43.1,36.7,29.93,NNE,12,2.0,4.0,78,0.00,,,0.00,Wunderground v.1.15,2013-04-08 22:58:00,
2013-04-08 18:59:00,43.1,36.7,29.93,NNW,337,2.0,4.0,78,0.00,,,0.00,Wunderground v.1.15,2013-04-08 22:59:00,
2013-04-08 19:00:00,43.1,36.7,29.93,NE,46,2.0,4.0,78,0.00,,,0.00,Wunderground v.1.15,2013-04-08 23:00:00,
2013-04-08 19:04:00,42.9,36.8,29.93,NW,308,2.0,4.0,79,0.00,,,0.00,Wunderground v.1.15,2013-04-08 23:04:00,
2013-04-08 19:05:00,42.8,37.1,29.93,ENE,64,2.0,4.0,80,0.00,,,0.00,Wunderground v.1.15,2013-04-08 23:05:00,
2013-04-08 19:06:00,42.7,37.0,29.93,NNW,346,2.0,5.0,80,0.00,,,0.00,Wunderground v.1.15,2013-04-08 23:06:00,
2013-04-08 19:07:00,42.6,36.9,29.93,NNW,348,2.0,5.0,80,0.00,,,0.00,Wunderground v.1.15,2013-04-08 23:07:00,
2013-04-08 19:09:00,42.4,37.0,29.93,North,3,3.0,5.0,81,0.00,,,0.00,Wunderground v.1.15,2013-04-08 23:09:00,
2013-04-08 19:12:00,42.2,37.1,29.94,NNE,26,2.0,3.0,82,0.00,,,0.00,Wunderground v.1.15,2013-04-08 23:12:00,
2013-04-08 19:13:00,42.1,37.3,29.94,North,354,2.0,3.0,83,0.00,,,0.00,Wunderground v.1.15,2013-04-08 23:13:00,
2013-04-08 19:17:00,41.7,37.2,29.95,NNE,32,2.0,3.0,84,0.00,,,0.01,Wunderground v.1.15,2013-04-08 23:17:00,
2013-04-08 19:18:00,41.6,37.1,29.95,NE,56,2.0,3.0,84,0.00,,,0.01,Wunderground v.1.15,2013-04-08 23:18:00,
2013-04-08 19:19:00,41.5,37.0,29.95,NNW,333,3.0,3.0,84,0.00,,,0.01,Wunderground v.1.15,2013-04-08 23:19:00,
2013-04-08 19:20:00,41.3,37.1,29.95,NNE,23,3.0,3.0,85,0.00,,,0.01,Wunderground v.1.15,2013-04-08 23:20:00,
2013-04-08 19:22:00,41.1,36.9,29.95,NW,316,3.0,3.0,85,0.00,,,0.01,Wunderground v.1.15,2013-04-08 23:22:00,
2013-04-08 19:27:00,40.7,36.8,29.95,NNE,26,3.0,3.0,86,0.00,,,0.01,Wunderground v.1.15,2013-04-08 23:27:00,
2013-04-08 19:28:00,40.6,37.0,29.95,ENE,70,3.0,3.0,87,0.00,,,0.01,Wunderground v.1.15,2013-04-08 23:28:00,
2013-04-08 19:31:00,40.5,36.9,29.95,East,84,2.0,3.0,87,0.00,,,0.01,Wunderground v.1.15,2013-04-08 23:31:00,
2013-04-08 19:34:00,40.3,37.0,29.95,SE,131,1.0,3.0,88,0.00,,,0.01,Wunderground v.1.15,2013-04-08 23:34:00,
2013-04-08 19:37:00,40.2,36.9,29.95,East,84,1.0,3.0,88,0.00,,,0.01,Wunderground v.1.15,2013-04-08 23:37:00,
2013-04-08 19:39:00,40.1,36.8,29.94,NE,56,1.0,3.0,88,0.00,,,0.02,Wunderground v.1.15,2013-04-08 23:39:00,
2013-04-08 19:40:00,40.1,37.1,29.94,NNE,17,1.0,1.0,89,0.00,,,0.02,Wunderground v.1.15,2013-04-08 23:40:00,
2013-04-08 19:42:00,40.1,37.1,29.93,NNE,33,1.0,5.0,89,0.00,,,0.02,Wunderground v.1.15,2013-04-08 23:42:00,
2013-04-08 19:44:00,40.0,37.0,29.93,ENE,64,2.0,5.0,89,0.00,,,0.02,Wunderground v.1.15,2013-04-08 23:44:00,
2013-04-08 19:48:00,40.0,37.0,29.92,ENE,64,3.0,5.0,89,0.00,,,0.02,Wunderground v.1.15,2013-04-08 23:48:00,
2013-04-08 19:50:00,40.0,37.0,29.91,East,84,3.0,4.0,89,0.00,,,0.02,Wunderground v.1.15,2013-04-08 23:50:00,
2013-04-08 19:53:00,40.0,37.3,29.91,East,93,3.0,4.0,90,0.00,,,0.02,Wunderground v.1.15,2013-04-08 23:53:00,
2013-04-08 19:54:00,40.1,37.4,29.91,ENE,60,3.0,7.0,90,0.00,,,0.02,Wunderground v.1.15,2013-04-08 23:54:00,
2013-04-08 19:56:00,40.1,37.4,29.91,ENE,77,4.0,7.0,90,0.00,,,0.02,Wunderground v.1.15,2013-04-08 23:56:00,
2013-04-08 19:59:00,40.3,37.3,29.91,ENE,67,4.0,7.0,89,0.00,,,0.02,Wunderground v.1.15,2013-04-08 23:59:00,
2013-04-08 20:01:00,40.4,37.4,29.91,East,79,4.0,10.0,89,0.00,,,0.02,Wunderground v.1.15,2013-04-09 00:01:00,
2013-04-08 20:02:00,40.4,37.4,29.91,NE,51,4.0,10.0,89,0.00,,,0.02,Wunderground v.1.15,2013-04-09 00:02:00,
2013-04-08 20:03:00,40.4,37.4,29.91,East,80,5.0,10.0,89,0.00,,,0.02,Wunderground v.1.15,2013-04-09 00:03:00,
2013-04-08 20:06:00,40.5,37.5,29.90,East,90,4.0,10.0,89,0.00,,,0.03,Wunderground v.1.15,2013-04-09 00:06:00,
2013-04-08 20:09:00,40.6,37.6,29.90,ESE,107,4.0,10.0,89,0.00,,,0.03,Wunderground v.1.15,2013-04-09 00:09:00,
2013-04-08 20:10:00,40.7,37.7,29.89,East,97,4.0,4.0,89,0.00,,,0.03,Wunderground v.1.15,2013-04-09 00:10:00,
2013-04-08 20:12:00,40.7,37.7,29.89,East,97,4.0,5.0,89,0.00,,,0.03,Wunderground v.1.15,2013-04-09 00:12:00,
2013-04-08 20:15:00,40.8,37.8,29.88,ENE,72,4.0,6.0,89,0.00,,,0.03,Wunderground v.1.15,2013-04-09 00:15:00,
2013-04-08 20:17:00,40.8,37.8,29.88,ESE,109,4.0,6.0,89,0.00,,,0.03,Wunderground v.1.15,2013-04-09 00:17:00,
2013-04-08 20:18:00,40.9,37.9,29.88,East,101,4.0,6.0,89,0.00,,,0.03,Wunderground v.1.15,2013-04-09 00:18:00,
2013-04-08 20:20:00,40.9,37.9,29.88,ENE,58,4.0,9.0,89,0.00,,,0.03,Wunderground v.1.15,2013-04-09 00:20:00,
2013-04-08 20:22:00,40.9,37.9,29.87,ENE,59,4.0,9.0,89,0.00,,,0.03,Wunderground v.1.15,2013-04-09 00:22:00,
2013-04-08 20:23:00,41.0,38.0,29.87,ESE,106,4.0,9.0,89,0.00,,,0.03,Wunderground v.1.15,2013-04-09 00:23:00,
2013-04-08 20:25:00,41.1,38.1,29.87,ENE,62,4.0,9.0,89,0.00,,,0.03,Wunderground v.1.15,2013-04-09 00:25:00,
2013-04-08 20:26:00,41.1,38.1,29.87,ENE,58,4.0,9.0,89,0.00,,,0.03,Wunderground v.1.15,2013-04-09 00:26:00,
2013-04-08 20:31:00,41.3,38.3,29.86,SE,130,4.0,4.0,89,0.00,,,0.03,Wunderground v.1.15,2013-04-09 00:31:00,
2013-04-08 20:32:00,41.3,38.3,29.86,ESE,115,4.0,4.0,89,0.00,,,0.03,Wunderground v.1.15,2013-04-09 00:32:00,
2013-04-08 20:33:00,41.3,38.3,29.86,ESE,105,4.0,4.0,89,0.00,,,0.03,Wunderground v.1.15,2013-04-09 00:33:00,
2013-04-08 20:37:00,41.6,38.9,29.85,East,87,3.0,5.0,90,0.00,,,0.03,Wunderground v.1.15,2013-04-09 00:37:00,
2013-04-08 20:38:00,41.6,38.6,29.85,East,89,3.0,5.0,89,0.00,,,0.03,Wunderground v.1.15,2013-04-09 00:38:00,
2013-04-08 20:41:00,41.8,38.8,29.85,ENE,78,4.0,6.0,89,0.00,,,0.03,Wunderground v.1.15,2013-04-09 00:41:00,
2013-04-08 20:42:00,41.9,38.9,29.85,ESE,117,4.0,6.0,89,0.00,,,0.03,Wunderground v.1.15,2013-04-09 00:42:00,
2013-04-08 20:45:00,42.1,39.1,29.85,South,188,4.0,6.0,89,0.00,,,0.03,Wunderground v.1.15,2013-04-09 00:45:00,
2013-04-08 20:47:00,42.3,39.3,29.86,NE,46,3.0,6.0,89,0.00,,,0.03,Wunderground v.1.15,2013-04-09 00:47:00,
2013-04-08 20:49:00,42.4,39.4,29.86,East,83,3.0,6.0,89,0.00,,,0.03,Wunderground v.1.15,2013-04-09 00:49:00,
2013-04-08 20:51:00,42.6,39.3,29.86,East,98,3.0,4.0,88,0.00,,,0.03,Wunderground v.1.15,2013-04-09 00:51:00,
2013-04-08 20:53:00,42.7,39.4,29.85,East,90,2.0,5.0,88,0.00,,,0.03,Wunderground v.1.15,2013-04-09 00:53:00,
2013-04-08 20:56:00,42.9,39.6,29.84,ENE,65,3.0,5.0,88,0.00,,,0.03,Wunderground v.1.15,2013-04-09 00:56:00,
2013-04-08 20:57:00,42.9,39.6,29.85,East,94,3.0,5.0,88,0.00,,,0.03,Wunderground v.1.15,2013-04-09 00:57:00,
2013-04-08 20:58:00,43.0,39.7,29.85,East,86,3.0,5.0,88,0.00,,,0.03,Wunderground v.1.15,2013-04-09 00:58:00,
2013-04-08 21:02:00,43.2,39.6,29.85,ENE,63,2.0,3.0,87,0.00,,,0.03,Wunderground v.1.15,2013-04-09 01:02:00,
2013-04-08 21:04:00,43.3,39.7,29.86,North,357,2.0,3.0,87,0.00,,,0.03,Wunderground v.1.15,2013-04-09 01:04:00,
2013-04-08 21:07:00,43.3,40.0,29.86,North,354,2.0,3.0,88,0.00,,,0.03,Wunderground v.1.15,2013-04-09 01:07:00,
2013-04-08 21:08:00,43.4,40.1,29.86,NNW,333,2.0,3.0,88,0.00,,,0.03,Wunderground v.1.15,2013-04-09 01:08:00,
2013-04-08 21:10:00,43.4,40.1,29.87,NW,309,2.0,2.0,88,0.00,,,0.03,Wunderground v.1.15,2013-04-09 01:10:00,
2013-04-08 21:13:00,43.5,40.5,29.87,WNW,290,1.0,3.0,89,0.00,,,0.03,Wunderground v.1.15,2013-04-09 01:13:00,
2013-04-08 21:16:00,43.4,40.4,29.87,WNW,298,1.0,3.0,89,0.00,,,0.03,Wunderground v.1.15,2013-04-09 01:16:00,
2013-04-08 21:17:00,43.4,40.4,29.87,WNW,298,1.0,3.0,89,0.00,,,0.03,Wunderground v.1.15,2013-04-09 01:17:00,
2013-04-08 21:18:00,43.3,40.3,29.88,WSW,248,1.0,3.0,89,0.00,,,0.03,Wunderground v.1.15,2013-04-09 01:18:00,
2013-04-08 21:20:00,43.3,40.3,29.88,WSW,248,0.0,3.0,89,0.00,,,0.03,Wunderground v.1.15,2013-04-09 01:20:00,
2013-04-08 21:24:00,43.2,40.2,29.88,West,271,0.0,3.0,89,0.00,,,0.03,Wunderground v.1.15,2013-04-09 01:24:00,
2013-04-08 21:26:00,43.1,40.1,29.88,West,271,0.0,3.0,89,0.00,,,0.03,Wunderground v.1.15,2013-04-09 01:26:00,
2013-04-08 21:30:00,43.1,40.1,29.87,West,271,0.0,3.0,89,0.00,,,0.03,Wunderground v.1.15,2013-04-09 01:30:00,
2013-04-08 21:32:00,43.1,40.1,29.88,West,271,0.0,3.0,89,0.00,,,0.03,Wunderground v.1.15,2013-04-09 01:32:00,
2013-04-08 21:33:00,43.1,40.1,29.88,West,271,0.0,3.0,89,0.00,,,0.04,Wunderground v.1.15,2013-04-09 01:33:00,
2013-04-08 21:36:00,43.1,40.4,29.87,West,271,0.0,3.0,90,0.00,,,0.04,Wunderground v.1.15,2013-04-09 01:36:00,
2013-04-08 21:37:00,43.1,40.4,29.87,West,271,0.0,3.0,90,0.14,,,0.05,Wunderground v.1.15,2013-04-09 01:37:00,
2013-04-08 21:39:00,43.1,40.4,29.86,West,271,0.0,3.0,90,0.38,,,0.06,Wunderground v.1.15,2013-04-09 01:39:00,
2013-04-08 21:40:00,43.1,40.4,29.86,East,89,0.0,3.0,90,0.53,,,0.07,Wunderground v.1.15,2013-04-09 01:40:00,
2013-04-08 21:42:00,43.0,40.3,29.85,East,98,0.0,3.0,90,0.21,,,0.07,Wunderground v.1.15,2013-04-09 01:42:00,
2013-04-08 21:44:00,42.9,40.2,29.85,SE,124,1.0,3.0,90,0.12,,,0.07,Wunderground v.1.15,2013-04-09 01:44:00,
2013-04-08 21:45:00,42.9,40.5,29.85,SE,129,1.0,3.0,91,0.10,,,0.07,Wunderground v.1.15,2013-04-09 01:45:00,
2013-04-08 21:49:00,42.9,40.5,29.86,SE,129,1.0,3.0,91,0.08,,,0.08,Wunderground v.1.15,2013-04-09 01:49:00,
2013-04-08 21:52:00,42.9,40.5,29.86,SE,129,0.0,3.0,91,0.08,,,0.08,Wunderground v.1.15,2013-04-09 01:52:00,
2013-04-08 21:53:00,42.9,40.5,29.86,SE,129,0.0,3.0,91,0.08,,,0.08,Wunderground v.1.15,2013-04-09 01:53:00,
2013-04-08 21:56:00,42.9,40.5,29.85,SE,129,0.0,3.0,91,0.07,,,0.08,Wunderground v.1.15,2013-04-09 01:56:00,
2013-04-08 21:59:00,42.9,40.7,29.84,East,100,0.0,3.0,92,0.05,,,0.08,Wunderground v.1.15,2013-04-09 01:59:00,
2013-04-08 22:01:00,42.9,40.7,29.84,South,179,0.0,3.0,92,0.04,,,0.08,Wunderground v.1.15,2013-04-09 02:01:00,
2013-04-08 22:03:00,43.0,40.8,29.84,SE,124,1.0,3.0,92,0.04,,,0.08,Wunderground v.1.15,2013-04-09 02:03:00,
2013-04-08 22:08:00,43.0,40.8,29.83,SSE,156,1.0,4.0,92,0.00,,,0.08,Wunderground v.1.15,2013-04-09 02:08:00,
2013-04-08 22:09:00,43.0,40.8,29.83,SSE,167,1.0,4.0,92,0.00,,,0.08,Wunderground v.1.15,2013-04-09 02:09:00,
2013-04-08 22:13:00,43.1,41.2,29.82,ESE,113,2.0,6.0,93,0.00,,,0.08,Wunderground v.1.15,2013-04-09 02:13:00,
2013-04-08 22:16:00,43.3,41.4,29.82,ENE,72,2.0,6.0,93,0.00,,,0.08,Wunderground v.1.15,2013-04-09 02:16:00,
2013-04-08 22:18:00,43.6,41.7,29.82,SE,129,2.0,6.0,93,0.00,,,0.08,Wunderground v.1.15,2013-04-09 02:18:00,
2013-04-08 22:20:00,43.7,41.8,29.82,ESE,117,2.0,3.0,93,0.00,,,0.08,Wunderground v.1.15,2013-04-09 02:20:00,
2013-04-08 22:21:00,43.9,42.0,29.82,East,101,2.0,3.0,93,0.00,,,0.08,Wunderground v.1.15,2013-04-09 02:21:00,
2013-04-08 22:24:00,44.2,42.3,29.82,SSW,195,2.0,3.0,93,0.00,,,0.08,Wunderground v.1.15,2013-04-09 02:24:00,
2013-04-08 22:26:00,44.3,42.4,29.82,ESE,114,2.0,3.0,93,0.00,,,0.08,Wunderground v.1.15,2013-04-09 02:26:00,
2013-04-08 22:28:00,44.5,42.3,29.82,SE,131,2.0,3.0,92,0.00,,,0.08,Wunderground v.1.15,2013-04-09 02:28:00,
2013-04-08 22:31:00,44.7,42.5,29.81,SE,129,2.0,3.0,92,0.00,,,0.08,Wunderground v.1.15,2013-04-09 02:31:00,
2013-04-08 22:34:00,44.9,42.4,29.81,ESE,117,2.0,3.0,91,0.00,,,0.08,Wunderground v.1.15,2013-04-09 02:34:00,
2013-04-08 22:36:00,45.0,42.5,29.81,SE,146,2.0,5.0,91,0.00,,,0.08,Wunderground v.1.15,2013-04-09 02:36:00,
2013-04-08 22:39:00,45.2,42.4,29.81,ESE,121,3.0,5.0,90,0.00,,,0.08,Wunderground v.1.15,2013-04-09 02:39:00,
2013-04-08 22:40:00,45.2,42.4,29.81,ESE,122,3.0,4.0,90,0.00,,,0.08,Wunderground v.1.15,2013-04-09 02:40:00,
2013-04-08 22:41:00,45.3,42.5,29.81,SSE,153,3.0,4.0,90,0.00,,,0.08,Wunderground v.1.15,2013-04-09 02:41:00,
2013-04-08 22:44:00,45.4,42.6,29.80,SE,136,3.0,5.0,90,0.00,,,0.08,Wunderground v.1.15,2013-04-09 02:44:00,
2013-04-08 22:47:00,45.6,42.8,29.80,SE,134,3.0,5.0,90,0.00,,,0.08,Wunderground v.1.15,2013-04-09 02:47:00,
2013-04-08 22:49:00,45.7,42.9,29.80,SE,135,3.0,5.0,90,0.00,,,0.08,Wunderground v.1.15,2013-04-09 02:49:00,
2013-04-08 22:51:00,45.8,43.0,29.80,SSE,148,2.0,3.0,90,0.00,,,0.08,Wunderground v.1.15,2013-04-09 02:51:00,
2013-04-08 22:52:00,45.9,43.1,29.80,SSE,165,2.0,3.0,90,0.00,,,0.08,Wunderground v.1.15,2013-04-09 02:52:00,
2013-04-08 22:54:00,46.0,43.2,29.80,SE,143,2.0,3.0,90,0.00,,,0.08,Wunderground v.1.15,2013-04-09 02:54:00,
2013-04-08 22:57:00,46.1,43.3,29.80,SSW,201,2.0,3.0,90,0.00,,,0.08,Wunderground v.1.15,2013-04-09 02:57:00,
2013-04-08 22:59:00,46.3,43.5,29.80,SE,137,2.0,3.0,90,0.00,,,0.08,Wunderground v.1.15,2013-04-09 02:59:00,
2013-04-08 23:00:00,46.3,43.5,29.80,South,179,2.0,3.0,90,0.00,,,0.08,Wunderground v.1.15,2013-04-09 03:00:00,
2013-04-08 23:02:00,46.4,43.3,29.80,SE,139,2.0,3.0,89,0.00,,,0.08,Wunderground v.1.15,2013-04-09 03:02:00,
2013-04-08 23:07:00,46.6,43.5,29.80,South,190,2.0,6.0,89,0.00,,,0.08,Wunderground v.1.15,2013-04-09 03:07:00,
2013-04-08 23:08:00,46.6,43.5,29.80,SSE,158,2.0,6.0,89,0.00,,,0.08,Wunderground v.1.15,2013-04-09 03:08:00,
2013-04-08 23:12:00,46.8,43.7,29.79,SSE,167,2.0,3.0,89,0.00,,,0.08,Wunderground v.1.15,2013-04-09 03:12:00,
2013-04-08 23:13:00,46.9,43.8,29.79,South,177,2.0,3.0,89,0.00,,,0.08,Wunderground v.1.15,2013-04-09 03:13:00,
2013-04-08 23:14:00,46.9,43.8,29.79,South,179,2.0,3.0,89,0.00,,,0.08,Wunderground v.1.15,2013-04-09 03:14:00,
2013-04-08 23:18:00,47.1,44.0,29.79,SSW,204,2.0,5.0,89,0.00,,,0.08,Wunderground v.1.15,2013-04-09 03:18:00,
2013-04-08 23:21:00,47.3,44.2,29.79,South,179,2.0,5.0,89,0.00,,,0.08,Wunderground v.1.15,2013-04-09 03:21:00,
2013-04-08 23:23:00,47.4,44.0,29.79,South,179,3.0,5.0,88,0.00,,,0.08,Wunderground v.1.15,2013-04-09 03:23:00,
2013-04-08 23:26:00,47.6,44.2,29.79,South,176,3.0,5.0,88,0.00,,,0.08,Wunderground v.1.15,2013-04-09 03:26:00,
2013-04-08 23:28:00,47.7,44.3,29.78,SSW,205,3.0,5.0,88,0.00,,,0.08,Wunderground v.1.15,2013-04-09 03:28:00,
2013-04-08 23:31:00,47.9,44.2,29.78,SSE,167,3.0,3.0,87,0.00,,,0.08,Wunderground v.1.15,2013-04-09 03:31:00,
2013-04-08 23:32:00,48.0,44.3,29.78,South,181,4.0,4.0,87,0.00,,,0.08,Wunderground v.1.15,2013-04-09 03:32:00,
2013-04-08 23:33:00,48.1,44.4,29.78,SE,139,4.0,4.0,87,0.00,,,0.08,Wunderground v.1.15,2013-04-09 03:33:00,
2013-04-08 23:34:00,48.1,44.4,29.78,South,176,4.0,4.0,87,0.00,,,0.08,Wunderground v.1.15,2013-04-09 03:34:00,
2013-04-08 23:37:00,48.2,44.2,29.78,South,176,3.0,5.0,86,0.00,,,0.08,Wunderground v.1.15,2013-04-09 03:37:00,
2013-04-08 23:39:00,48.2,44.2,29.77,South,180,3.0,5.0,86,0.00,,,0.08,Wunderground v.1.15,2013-04-09 03:39:00,
2013-04-08 23:42:00,48.3,44.3,29.77,SSW,207,3.0,4.0,86,0.00,,,0.08,Wunderground v.1.15,2013-04-09 03:42:00,
2013-04-08 23:43:00,48.3,44.3,29.77,SSW,201,3.0,4.0,86,0.00,,,0.08,Wunderground v.1.15,2013-04-09 03:43:00,
2013-04-08 23:45:00,48.3,44.3,29.77,South,190,3.0,4.0,86,0.00,,,0.08,Wunderground v.1.15,2013-04-09 03:45:00,
2013-04-08 23:48:00,48.5,44.5,29.77,SSW,203,3.0,4.0,86,0.00,,,0.08,Wunderground v.1.15,2013-04-09 03:48:00,
2013-04-08 23:50:00,48.5,44.5,29.77,SSW,211,3.0,3.0,86,0.00,,,0.08,Wunderground v.1.15,2013-04-09 03:50:00,
2013-04-08 23:54:00,48.8,44.8,29.77,SSW,200,3.0,3.0,86,0.00,,,0.08,Wunderground v.1.15,2013-04-09 03:54:00,
2013-04-08 23:55:00,48.9,44.9,29.77,SW,215,3.0,3.0,86,0.00,,,0.08,Wunderground v.1.15,2013-04-09 03:55:00,
2013-04-08 23:56:00,49.0,45.0,29.77,South,184,3.0,4.0,86,0.00,,,0.08,Wunderground v.1.15,2013-04-09 03:56:00,
2013-04-08 23:57:00,49.0,45.0,29.77,South,183,3.0,5.0,86,0.00,,,0.08,Wunderground v.1.15,2013-04-09 03:57:00,